OCN3FY FYWH-EDDF

Flight info

Callsign OCN3FY
Flight time N/A
Altitude 36000
Route VEDRY UT943 UNLOK/N0475F370 UT943 IMVEX/N0476F360 UT943 ESVAS/N0473F380 UT943 KSA DCT BZ UG727 EBIMU DCT ENBUT UM998 INISA/N0466F400 UM998 CSO UA605 CIRTA DCT ERETI DCT OMARD DCT NOSTA DCT NOPMU DCT ABESI DCT LADOL T163 EMPAX EMPAX5C
Aircraft A333/H-SDE2E3FGHIJ3J4J5LM1OP2RWXYZ/LB2D1

Departure

Time 2026-04-28 21:11
Airport Hosea Kutako International Airport (FYWH)

Arrival

Time N/A
Airport Frankfurt Main Airport (EDDF)
Time Latitude Longitude Altitude Speed Heading
2026-04-28 20:23 -22.48700 17.46069 5655 ft 0 kts 292°
2026-04-28 21:00 -22.48699 17.46067 5656 ft 0 kts 292°
2026-04-28 21:00 -22.48694 17.46055 5656 ft 2 kts 299°
2026-04-28 21:00 -22.48680 17.46037 5656 ft 3 kts 317°
2026-04-28 21:00 -22.48653 17.46021 5656 ft 5 kts 337°
2026-04-28 21:01 -22.48615 17.46023 5656 ft 6 kts 28°
2026-04-28 21:01 -22.48587 17.46066 5656 ft 8 kts 63°
2026-04-28 21:01 -22.48554 17.46136 5656 ft 12 kts 63°
2026-04-28 21:01 -22.48511 17.46229 5655 ft 15 kts 64°
2026-04-28 21:02 -22.48462 17.46334 5655 ft 15 kts 63°
2026-04-28 21:02 -22.48414 17.46441 5655 ft 16 kts 64°
2026-04-28 21:02 -22.48362 17.46551 5655 ft 16 kts 63°
2026-04-28 21:02 -22.48311 17.46664 5655 ft 16 kts 64°
2026-04-28 21:03 -22.48258 17.46779 5655 ft 17 kts 64°
2026-04-28 21:03 -22.48204 17.46897 5655 ft 17 kts 64°
2026-04-28 21:03 -22.48148 17.47017 5655 ft 18 kts 63°
2026-04-28 21:03 -22.48091 17.47141 5655 ft 18 kts 64°
2026-04-28 21:04 -22.48034 17.47265 5655 ft 18 kts 64°
2026-04-28 21:04 -22.47975 17.47394 5654 ft 19 kts 64°
2026-04-28 21:04 -22.47915 17.47522 5654 ft 18 kts 64°
2026-04-28 21:04 -22.47857 17.47647 5654 ft 17 kts 64°
2026-04-28 21:05 -22.47805 17.47761 5654 ft 16 kts 64°
2026-04-28 21:05 -22.47757 17.47863 5654 ft 11 kts 63°
2026-04-28 21:05 -22.47718 17.47912 5654 ft 7 kts 21°
2026-04-28 21:05 -22.47680 17.47906 5654 ft 6 kts 340°
2026-04-28 21:06 -22.47633 17.47896 5654 ft 8 kts
2026-04-28 21:06 -22.47591 17.47950 5654 ft 12 kts 64°
2026-04-28 21:06 -22.47545 17.48053 5654 ft 18 kts 64°
2026-04-28 21:06 -22.47480 17.48196 5654 ft 24 kts 64°
2026-04-28 21:07 -22.47398 17.48374 5654 ft 27 kts 63°
2026-04-28 21:07 -22.47312 17.48560 5653 ft 27 kts 64°
2026-04-28 21:07 -22.47238 17.48719 5653 ft 18 kts 64°
2026-04-28 21:07 -22.47219 17.48794 5653 ft 9 kts 97°
2026-04-28 21:08 -22.47254 17.48862 5653 ft 10 kts 122°
2026-04-28 21:08 -22.47258 17.48937 5653 ft 10 kts 56°
2026-04-28 21:08 -22.47197 17.48950 5653 ft 9 kts 336°
2026-04-28 21:08 -22.47166 17.48901 5653 ft 7 kts 273°
2026-04-28 21:09 -22.47179 17.48851 5653 ft 6 kts 246°
2026-04-28 21:09 -22.47180 17.48849 5653 ft 0 kts 245°
2026-04-28 21:09 -22.47183 17.48842 5653 ft 6 kts 245°
2026-04-28 21:10 -22.47284 17.48621 5653 ft 63 kts 244°
2026-04-28 21:10 -22.47576 17.47985 5654 ft 122 kts 244°
2026-04-28 21:10 -22.48037 17.46989 5655 ft 173 kts 243°
2026-04-28 21:10 -22.48622 17.45719 5902 ft 194 kts 245°
2026-04-28 21:11 -22.49204 17.44421 6522 ft 193 kts 245°
2026-04-28 21:11 -22.49786 17.43102 7138 ft 199 kts 246°
2026-04-28 21:11 -22.50362 17.41797 7573 ft 192 kts 246°
2026-04-28 21:11 -22.50939 17.40489 7806 ft 195 kts 246°
2026-04-28 21:12 -22.51533 17.39160 8017 ft 200 kts 245°
2026-04-28 21:12 -22.52140 17.37776 8145 ft 207 kts 256°
2026-04-28 21:12 -22.52140 17.36233 8299 ft 210 kts 292°
2026-04-28 21:12 -22.51273 17.34976 8475 ft 213 kts 327°
2026-04-28 21:13 -22.49871 17.34396 8666 ft 218 kts 346°
2026-04-28 21:13 -22.48363 17.34061 8809 ft 226 kts 354°
2026-04-28 21:13 -22.46748 17.33959 8873 ft 241 kts 356°
2026-04-28 21:13 -22.45010 17.33864 9036 ft 257 kts 356°
2026-04-28 21:14 -22.43160 17.33773 9232 ft 273 kts 357°
2026-04-28 21:14 -22.41209 17.33680 9547 ft 283 kts 357°
2026-04-28 21:14 -22.39229 17.33586 10093 ft 283 kts 357°
2026-04-28 21:14 -22.37263 17.33494 10557 ft 287 kts 357°
2026-04-28 21:15 -22.35195 17.33396 10759 ft 302 kts 357°
2026-04-28 21:15 -22.33068 17.33295 11133 ft 309 kts 357°
2026-04-28 21:15 -22.30892 17.33193 11499 ft 316 kts 356°
2026-04-28 21:15 -22.28681 17.33089 11855 ft 322 kts 357°
2026-04-28 21:16 -22.26405 17.32981 12219 ft 328 kts 356°
2026-04-28 21:16 -22.24118 17.32873 12573 ft 334 kts 356°
2026-04-28 21:16 -22.21761 17.32762 12928 ft 340 kts 356°
2026-04-28 21:16 -22.19357 17.32649 13283 ft 345 kts 356°
2026-04-28 21:17 -22.16950 17.32536 13635 ft 350 kts 356°
2026-04-28 21:17 -22.14490 17.32420 13986 ft 354 kts 356°
2026-04-28 21:17 -22.11985 17.32302 14341 ft 358 kts 356°
2026-04-28 21:17 -22.09496 17.32186 14683 ft 362 kts 356°
2026-04-28 21:18 -22.06943 17.32065 14893 ft 369 kts 356°
2026-04-28 21:18 -22.04353 17.31943 15114 ft 376 kts 356°
2026-04-28 21:18 -22.01731 17.31820 15501 ft 377 kts 356°
2026-04-28 21:18 -21.99099 17.31696 15859 ft 379 kts 356°
2026-04-28 21:19 -21.96465 17.31574 16229 ft 380 kts 356°
2026-04-28 21:19 -21.93790 17.31448 16575 ft 381 kts 356°
2026-04-28 21:19 -21.91119 17.31323 16890 ft 384 kts 356°
2026-04-28 21:19 -21.88471 17.31198 17240 ft 385 kts 356°
2026-04-28 21:20 -21.85757 17.31070 17575 ft 386 kts 355°
2026-04-28 21:20 -21.83065 17.30944 17861 ft 388 kts 355°
2026-04-28 21:20 -21.80360 17.30818 18201 ft 390 kts 355°
2026-04-28 21:20 -21.77652 17.30691 18513 ft 391 kts 355°
2026-04-28 21:21 -21.74917 17.30564 18821 ft 392 kts 355°
2026-04-28 21:21 -21.72154 17.30434 19076 ft 395 kts 355°
2026-04-28 21:21 -21.69398 17.30305 19393 ft 396 kts 355°
2026-04-28 21:21 -21.66621 17.30174 19654 ft 398 kts 355°
2026-04-28 21:22 -21.63869 17.30046 19937 ft 400 kts 355°
2026-04-28 21:22 -21.61062 17.29916 20221 ft 401 kts 355°
2026-04-28 21:22 -21.58247 17.29784 20489 ft 403 kts 355°
2026-04-28 21:22 -21.56370 17.29696 20672 ft 404 kts 355°
2026-04-28 21:23 -21.52613 17.29520 20988 ft 406 kts 355°
2026-04-28 21:23 -21.49785 17.29388 21271 ft 407 kts 355°
2026-04-28 21:23 -21.46930 17.29255 21506 ft 409 kts 355°
2026-04-28 21:23 -21.44054 17.29122 21760 ft 410 kts 355°
2026-04-28 21:24 -21.41192 17.28989 21973 ft 412 kts 355°
2026-04-28 21:24 -21.38329 17.28854 22189 ft 413 kts 355°
2026-04-28 21:24 -21.35432 17.28720 22413 ft 415 kts 355°
2026-04-28 21:24 -21.32525 17.28584 22595 ft 417 kts 355°
2026-04-28 21:25 -21.29619 17.28448 22848 ft 418 kts 355°
2026-04-28 21:25 -21.26725 17.28314 23064 ft 419 kts 355°
2026-04-28 21:25 -21.23798 17.28178 23296 ft 420 kts 355°
2026-04-28 21:25 -21.20853 17.28042 23499 ft 421 kts 355°
2026-04-28 21:26 -21.17932 17.27907 23746 ft 421 kts 355°
2026-04-28 21:26 -21.14983 17.27769 23923 ft 423 kts 355°
2026-04-28 21:26 -21.12026 17.27631 24140 ft 424 kts 355°
2026-04-28 21:26 -21.09031 17.27493 24341 ft 425 kts 355°
2026-04-28 21:27 -21.06088 17.27357 24507 ft 427 kts 355°
2026-04-28 21:27 -21.03081 17.27217 24704 ft 428 kts 355°
2026-04-28 21:27 -21.00115 17.27080 24893 ft 429 kts 354°
2026-04-28 21:27 -20.97111 17.26940 25089 ft 430 kts 355°
2026-04-28 21:28 -20.94102 17.26801 25266 ft 432 kts 355°
2026-04-28 21:28 -20.91096 17.26661 25459 ft 433 kts 355°
2026-04-28 21:28 -20.88061 17.26521 25611 ft 434 kts 355°
2026-04-28 21:28 -20.85020 17.26381 25813 ft 435 kts 355°
2026-04-28 21:29 -20.81986 17.26240 26047 ft 435 kts 354°
2026-04-28 21:29 -20.78971 17.25917 26199 ft 435 kts 350°
2026-04-28 21:29 -20.75937 17.25527 26327 ft 437 kts 351°
2026-04-28 21:29 -20.72907 17.25145 26481 ft 439 kts 351°
2026-04-28 21:30 -20.69849 17.24765 26692 ft 439 kts 351°
2026-04-28 21:30 -20.66777 17.24383 26900 ft 440 kts 351°
2026-04-28 21:30 -20.63752 17.24008 27068 ft 441 kts 351°
2026-04-28 21:30 -20.60671 17.23626 27232 ft 442 kts 351°
2026-04-28 21:31 -20.57585 17.23242 27377 ft 443 kts 351°
2026-04-28 21:31 -20.54492 17.22859 27524 ft 444 kts 351°
2026-04-28 21:31 -20.51389 17.22476 27698 ft 445 kts 351°
2026-04-28 21:31 -20.48323 17.22096 27846 ft 446 kts 351°
2026-04-28 21:32 -20.45203 17.21710 27994 ft 447 kts 351°
2026-04-28 21:32 -20.42095 17.21325 28126 ft 448 kts 350°
2026-04-28 21:32 -20.38976 17.20940 28262 ft 449 kts 350°
2026-04-28 21:32 -20.35870 17.20556 28404 ft 450 kts 351°
2026-04-28 21:33 -20.32740 17.20170 28537 ft 450 kts 351°
2026-04-28 21:33 -20.29589 17.19780 28660 ft 451 kts 351°
2026-04-28 21:33 -20.26460 17.19393 28778 ft 452 kts 351°
2026-04-28 21:33 -20.23293 17.19004 28902 ft 452 kts 351°
2026-04-28 21:34 -20.20154 17.18616 29020 ft 453 kts 351°
2026-04-28 21:34 -20.17023 17.18230 29144 ft 453 kts 351°
2026-04-28 21:34 -20.13839 17.17838 29266 ft 454 kts 351°
2026-04-28 21:34 -20.10699 17.17451 29387 ft 454 kts 351°
2026-04-28 21:35 -20.07516 17.17059 29507 ft 455 kts 351°
2026-04-28 21:35 -20.04368 17.16672 29622 ft 455 kts 350°
2026-04-28 21:35 -20.01214 17.16284 29741 ft 456 kts 351°
2026-04-28 21:35 -19.98012 17.15890 29860 ft 456 kts 351°
2026-04-28 21:36 -19.94855 17.15503 29985 ft 457 kts 351°
2026-04-28 21:36 -19.91674 17.15112 30121 ft 457 kts 350°
2026-04-28 21:36 -19.88526 17.14725 30261 ft 456 kts 351°
2026-04-28 21:36 -19.85327 17.14331 30394 ft 457 kts 351°
2026-04-28 21:37 -19.82160 17.13943 30551 ft 457 kts 350°
2026-04-28 21:37 -19.78990 17.13555 30683 ft 457 kts 350°
2026-04-28 21:37 -19.75825 17.13166 30818 ft 457 kts 350°
2026-04-28 21:37 -19.72608 17.12772 30971 ft 456 kts 351°
2026-04-28 21:38 -19.69468 17.12386 31096 ft 457 kts 350°
2026-04-28 21:38 -19.66289 17.11998 31240 ft 456 kts 351°
2026-04-28 21:38 -19.63078 17.11604 31378 ft 456 kts 351°
2026-04-28 21:38 -19.59913 17.11217 31529 ft 456 kts 350°
2026-04-28 21:39 -19.56750 17.10831 31659 ft 456 kts 350°
2026-04-28 21:39 -19.53586 17.10443 31786 ft 456 kts 350°
2026-04-28 21:39 -19.50390 17.10053 31924 ft 456 kts 350°
2026-04-28 21:39 -19.47221 17.09665 32075 ft 456 kts 350°
2026-04-28 21:40 -19.44074 17.09281 32227 ft 455 kts 351°
2026-04-28 21:40 -19.40892 17.08892 32362 ft 455 kts 351°
2026-04-28 21:40 -19.37713 17.08505 32512 ft 455 kts 351°
2026-04-28 21:40 -19.34581 17.08122 32654 ft 454 kts 351°
2026-04-28 21:41 -19.31403 17.07735 32793 ft 454 kts 350°
2026-04-28 21:41 -19.28263 17.07352 32935 ft 454 kts 350°
2026-04-28 21:41 -19.25105 17.06967 33092 ft 454 kts 351°
2026-04-28 21:41 -19.21922 17.06579 33245 ft 454 kts 351°
2026-04-28 21:42 -19.18782 17.06197 33387 ft 453 kts 351°
2026-04-28 21:42 -19.15640 17.05815 33534 ft 453 kts 351°
2026-04-28 21:42 -19.12492 17.05443 33674 ft 453 kts 351°
2026-04-28 21:42 -19.09308 17.05069 33823 ft 453 kts 351°
2026-04-28 21:43 -19.06174 17.04699 33968 ft 453 kts 351°
2026-04-28 21:43 -19.03036 17.04330 34113 ft 452 kts 351°
2026-04-28 21:43 -18.99893 17.03960 34254 ft 452 kts 351°
2026-04-28 21:43 -18.96755 17.03590 34410 ft 451 kts 351°
2026-04-28 21:44 -18.93615 17.03221 34544 ft 451 kts 351°
2026-04-28 21:44 -18.90448 17.02849 34682 ft 451 kts 351°
2026-04-28 21:44 -18.87325 17.02482 34839 ft 451 kts 351°
2026-04-28 21:44 -18.84182 17.02112 34981 ft 450 kts 351°
2026-04-28 21:45 -18.81080 17.01749 35123 ft 450 kts 351°
2026-04-28 21:45 -18.77941 17.01380 35267 ft 450 kts 351°
2026-04-28 21:45 -18.74830 17.01015 35410 ft 450 kts 351°
2026-04-28 21:45 -18.71688 17.00646 35556 ft 450 kts 351°
2026-04-28 21:46 -18.68533 17.00277 35702 ft 449 kts 351°
2026-04-28 21:46 -18.65433 16.99913 35845 ft 449 kts 351°
2026-04-28 21:46 -18.62293 16.99545 35992 ft 449 kts 351°
2026-04-28 21:46 -18.59167 16.99179 36129 ft 449 kts 351°
2026-04-28 21:47 -18.52899 16.98445 36127 ft 453 kts 351°
2026-04-28 21:47 -18.46564 16.97703 36129 ft 457 kts 351°
2026-04-28 21:48 -18.40190 16.96960 36128 ft 460 kts 351°
2026-04-28 21:48 -18.33811 16.96214 36130 ft 462 kts 351°
2026-04-28 21:49 -18.27384 16.95464 36135 ft 464 kts 351°
2026-04-28 21:49 -18.20932 16.94712 36137 ft 465 kts 351°
2026-04-28 21:50 -18.14453 16.93957 36136 ft 466 kts 352°
2026-04-28 21:50 -18.07930 16.93197 36133 ft 466 kts 352°
2026-04-28 21:51 -18.01465 16.92445 36139 ft 467 kts 352°
2026-04-28 21:51 -17.94952 16.91688 36150 ft 467 kts 352°
2026-04-28 21:52 -17.88458 16.90933 36150 ft 468 kts 352°
2026-04-28 21:52 -17.81961 16.90180 36154 ft 468 kts 352°
2026-04-28 21:53 -17.75438 16.89422 36151 ft 469 kts 352°
2026-04-28 21:53 -17.68933 16.88668 36150 ft 469 kts 352°
2026-04-28 21:54 -17.62400 16.87911 36149 ft 469 kts 352°
2026-04-28 21:54 -17.55862 16.87155 36150 ft 469 kts 352°
2026-04-28 21:55 -17.49323 16.86398 36153 ft 469 kts 352°
2026-04-28 21:55 -17.42813 16.85646 36152 ft 467 kts 352°
2026-04-28 21:56 -17.36305 16.84890 36152 ft 468 kts 352°
2026-04-28 21:56 -17.29807 16.84132 36150 ft 469 kts 352°
2026-04-28 21:57 -17.23290 16.83373 36143 ft 468 kts 352°
2026-04-28 21:57 -17.16801 16.82617 36144 ft 468 kts 352°
2026-04-28 21:58 -17.10281 16.81858 36146 ft 468 kts 352°
2026-04-28 21:58 -17.03797 16.81104 36149 ft 467 kts 352°
2026-04-28 21:59 -16.97323 16.80352 36149 ft 467 kts 352°
2026-04-28 22:00 -16.87563 16.79218 36149 ft 469 kts 352°
2026-04-28 22:00 -16.81029 16.78461 36150 ft 468 kts 352°
2026-04-28 22:01 -16.74535 16.77708 36147 ft 468 kts 352°
2026-04-28 22:01 -16.68006 16.76952 36146 ft 467 kts 352°
2026-04-28 22:02 -16.61534 16.76202 36144 ft 467 kts 352°
2026-04-28 22:02 -16.55017 16.75448 36146 ft 467 kts 353°
2026-04-28 22:03 -16.48513 16.74696 36152 ft 468 kts 353°
2026-04-28 22:03 -16.42020 16.73946 36159 ft 467 kts 353°
2026-04-28 22:04 -16.35528 16.73196 36165 ft 467 kts 353°
2026-04-28 22:04 -16.29046 16.72449 36161 ft 467 kts 353°
2026-04-28 22:05 -16.22550 16.71700 36162 ft 467 kts 353°
2026-04-28 22:05 -16.16039 16.70950 36165 ft 466 kts 353°
2026-04-28 22:06 -16.09557 16.70203 36168 ft 466 kts 353°
2026-04-28 22:06 -16.03077 16.69457 36169 ft 467 kts 353°
2026-04-28 22:07 -15.96561 16.68708 36169 ft 467 kts 353°
2026-04-28 22:07 -15.90076 16.67962 36180 ft 467 kts 353°
2026-04-28 22:08 -15.83565 16.67215 36183 ft 466 kts 353°
2026-04-28 22:08 -15.77115 16.66474 36189 ft 465 kts 353°
2026-04-28 22:09 -15.70622 16.65730 36195 ft 466 kts 353°
2026-04-28 22:09 -15.64127 16.64985 36197 ft 466 kts 353°
2026-04-28 22:10 -15.57630 16.64241 36196 ft 466 kts 353°
2026-04-28 22:10 -15.51141 16.63498 36197 ft 467 kts 353°
2026-04-28 22:11 -15.44693 16.62760 36202 ft 465 kts 353°
2026-04-28 22:11 -15.38205 16.62018 36201 ft 465 kts 353°
2026-04-28 22:12 -15.31736 16.61279 36209 ft 465 kts 353°
2026-04-28 22:12 -15.25266 16.60541 36209 ft 465 kts 353°
2026-04-28 22:13 -15.18764 16.59798 36213 ft 466 kts 353°
2026-04-28 22:13 -15.12304 16.59073 36220 ft 465 kts 353°
2026-04-28 22:14 -15.05844 16.58349 36219 ft 464 kts 353°
2026-04-28 22:14 -14.99389 16.57626 36205 ft 465 kts 353°
2026-04-28 22:15 -14.92880 16.56898 36220 ft 464 kts 353°
2026-04-28 22:15 -14.86444 16.56179 36234 ft 464 kts 353°
2026-04-28 22:16 -14.79987 16.55457 36238 ft 465 kts 353°
2026-04-28 22:16 -14.73508 16.54733 36243 ft 466 kts 353°
2026-04-28 22:17 -14.67024 16.54009 36241 ft 465 kts 353°
2026-04-28 22:17 -14.60558 16.53287 36233 ft 464 kts 353°
2026-04-28 22:18 -14.54068 16.52564 36233 ft 465 kts 353°
2026-04-28 22:18 -14.47584 16.51841 36237 ft 465 kts 353°
2026-04-28 22:19 -14.41112 16.51120 36245 ft 466 kts 353°
2026-04-28 22:19 -14.34630 16.50399 36248 ft 466 kts 353°
2026-04-28 22:20 -14.28152 16.49678 36250 ft 466 kts 353°
2026-04-28 22:20 -14.21677 16.48958 36256 ft 466 kts 353°
2026-04-28 22:21 -14.15179 16.48236 36267 ft 467 kts 353°
2026-04-28 22:21 -14.08658 16.47511 36263 ft 466 kts 353°
2026-04-28 22:22 -14.02166 16.46793 36267 ft 466 kts 353°
2026-04-28 22:22 -13.95719 16.46077 36265 ft 463 kts 352°
2026-04-28 22:23 -13.89258 16.45360 36263 ft 463 kts 352°
2026-04-28 22:23 -13.82783 16.44642 36267 ft 465 kts 353°
2026-04-28 22:24 -13.76360 16.43931 36265 ft 465 kts 353°
2026-04-28 22:24 -13.69876 16.43213 36270 ft 463 kts 353°
2026-04-28 22:25 -13.63420 16.42499 36278 ft 463 kts 353°
2026-04-28 22:25 -13.56997 16.41789 36280 ft 463 kts 353°
2026-04-28 22:26 -13.50525 16.41074 36282 ft 463 kts 352°
2026-04-28 22:26 -13.44071 16.40361 36283 ft 464 kts 353°
2026-04-28 22:27 -13.37606 16.39648 36282 ft 463 kts 353°
2026-04-28 22:27 -13.31154 16.38936 36281 ft 462 kts 352°
2026-04-28 22:28 -13.24717 16.38226 36280 ft 462 kts 353°
2026-04-28 22:28 -13.18275 16.37516 36277 ft 463 kts 352°
2026-04-28 22:29 -13.11852 16.36809 36277 ft 463 kts 352°
2026-04-28 22:29 -13.05368 16.36095 36278 ft 463 kts 353°
2026-04-28 22:30 -12.98929 16.35387 36277 ft 462 kts 353°
2026-04-28 22:30 -12.92502 16.34680 36283 ft 462 kts 353°
2026-04-28 22:31 -12.86066 16.33972 36302 ft 462 kts 353°
2026-04-28 22:31 -12.79621 16.33264 36308 ft 463 kts 353°
2026-04-28 22:32 -12.73167 16.32555 36307 ft 463 kts 353°
2026-04-28 22:32 -12.66730 16.31849 36308 ft 463 kts 353°
2026-04-28 22:33 -12.60296 16.31143 36305 ft 462 kts 353°
2026-04-28 22:33 -12.53867 16.30438 36311 ft 462 kts 353°
2026-04-28 22:34 -12.47445 16.29735 36307 ft 462 kts 353°
2026-04-28 22:34 -12.40988 16.29028 36308 ft 463 kts 353°
2026-04-28 22:35 -12.34554 16.28323 36309 ft 462 kts 353°
2026-04-28 22:35 -12.28076 16.27614 36311 ft 463 kts 353°
2026-04-28 22:36 -12.21673 16.26921 36302 ft 463 kts 353°
2026-04-28 22:36 -12.15211 16.26236 36286 ft 462 kts 354°
2026-04-28 22:37 -12.08749 16.25550 36272 ft 463 kts 354°
2026-04-28 22:37 -12.02327 16.24870 36266 ft 463 kts 354°
2026-04-28 22:38 -11.95879 16.24187 36257 ft 463 kts 354°
2026-04-28 22:38 -11.89419 16.23502 36251 ft 463 kts 354°
2026-04-28 22:39 -11.82951 16.22817 36252 ft 463 kts 354°
2026-04-28 22:39 -11.76494 16.22134 36253 ft 464 kts 354°
2026-04-28 22:40 -11.70038 16.21451 36253 ft 463 kts 354°
2026-04-28 22:40 -11.63611 16.20771 36254 ft 462 kts 354°
2026-04-28 22:41 -11.57153 16.20089 36260 ft 462 kts 354°
2026-04-28 22:41 -11.50750 16.19413 36261 ft 462 kts 354°
2026-04-28 22:42 -11.44302 16.18732 36267 ft 462 kts 354°
2026-04-28 22:42 -11.37828 16.18049 36280 ft 463 kts 354°
2026-04-28 22:43 -11.31389 16.17369 36287 ft 462 kts 354°
2026-04-28 22:43 -11.24947 16.16690 36296 ft 461 kts 354°
2026-04-28 22:44 -11.18553 16.16016 36299 ft 460 kts 354°
2026-04-28 22:44 -11.12139 16.15341 36298 ft 461 kts 354°
2026-04-28 22:45 -11.05689 16.14662 36283 ft 462 kts 354°
2026-04-28 22:45 -10.99264 16.13986 36286 ft 462 kts 354°
2026-04-28 22:46 -10.92800 16.13305 36279 ft 462 kts 354°
2026-04-28 22:46 -10.86393 16.12558 36289 ft 461 kts 353°
2026-04-28 22:47 -10.79972 16.11789 36263 ft 461 kts 353°
2026-04-28 22:47 -10.73568 16.11023 36244 ft 461 kts 353°
2026-04-28 22:48 -10.67123 16.10252 36235 ft 462 kts 353°
2026-04-28 22:48 -10.60713 16.09486 36212 ft 462 kts 353°
2026-04-28 22:49 -10.54289 16.08719 36196 ft 461 kts 353°
2026-04-28 22:49 -10.47856 16.07950 36195 ft 461 kts 353°
2026-04-28 22:50 -10.41431 16.07183 36172 ft 462 kts 353°
2026-04-28 22:50 -10.34994 16.06415 36172 ft 461 kts 353°
2026-04-28 22:51 -10.28576 16.05649 36158 ft 461 kts 353°
2026-04-28 22:51 -10.22162 16.04884 36153 ft 461 kts 353°
2026-04-28 22:52 -10.15732 16.04118 36139 ft 462 kts 353°
2026-04-28 22:52 -10.09307 16.03353 36119 ft 463 kts 354°
2026-04-28 22:53 -10.02852 16.02642 36095 ft 462 kts 354°
2026-04-28 22:53 -9.96394 16.01933 36085 ft 462 kts 354°
2026-04-28 22:54 -9.89974 16.01228 36087 ft 461 kts 354°
2026-04-28 22:54 -9.83580 16.00527 36091 ft 461 kts 354°
2026-04-28 22:55 -9.77130 15.99819 36091 ft 462 kts 354°
2026-04-28 22:55 -9.70680 15.99112 36093 ft 463 kts 354°
2026-04-28 22:56 -9.64215 15.98404 36093 ft 462 kts 354°
2026-04-28 22:56 -9.57812 15.97703 36094 ft 462 kts 354°
2026-04-28 22:57 -9.51358 15.96996 36095 ft 462 kts 354°
2026-04-28 22:57 -9.44897 15.96289 36092 ft 462 kts 354°
2026-04-28 22:58 -9.38450 15.95584 36092 ft 463 kts 354°
2026-04-28 22:58 -9.32004 15.94881 36087 ft 463 kts 354°
2026-04-28 22:59 -9.25586 15.94180 36074 ft 462 kts 354°
2026-04-28 22:59 -9.19146 15.93477 36068 ft 461 kts 354°
2026-04-28 23:00 -9.12712 15.92775 36067 ft 463 kts 354°
2026-04-28 23:00 -9.06255 15.92071 36068 ft 463 kts 354°
2026-04-28 23:01 -8.99791 15.91366 36065 ft 463 kts 354°
2026-04-28 23:01 -8.93321 15.90662 36068 ft 463 kts 354°
2026-04-28 23:02 -8.86886 15.89961 36086 ft 462 kts 354°
2026-04-28 23:02 -8.80416 15.89256 36092 ft 461 kts 354°
2026-04-28 23:03 -8.74023 15.88561 36094 ft 461 kts 354°
2026-04-28 23:03 -8.67571 15.87859 36099 ft 462 kts 354°
2026-04-28 23:04 -8.61113 15.87157 36103 ft 462 kts 354°
2026-04-28 23:04 -8.51500 15.86113 36111 ft 460 kts 354°
2026-04-28 23:05 -8.45049 15.85412 36110 ft 460 kts 354°
2026-04-28 23:05 -8.38648 15.84717 36099 ft 460 kts 354°
2026-04-28 23:06 -8.32239 15.84019 36091 ft 460 kts 354°
2026-04-28 23:06 -8.25818 15.83318 36079 ft 460 kts 354°
2026-04-28 23:07 -8.19386 15.82616 36082 ft 460 kts 354°
2026-04-28 23:07 -8.13014 15.81922 36074 ft 459 kts 354°
2026-04-28 23:08 -8.06634 15.81226 36066 ft 457 kts 354°
2026-04-28 23:08 -8.00238 15.80532 36077 ft 458 kts 354°
2026-04-28 23:09 -7.93846 15.79842 36077 ft 458 kts 354°
2026-04-28 23:09 -7.87448 15.79151 36084 ft 458 kts 354°
2026-04-28 23:10 -7.81040 15.78459 36094 ft 459 kts 354°
2026-04-28 23:10 -7.74612 15.77766 36095 ft 460 kts 354°
2026-04-28 23:11 -7.68201 15.77074 36097 ft 460 kts 354°
2026-04-28 23:11 -7.61818 15.76384 36090 ft 459 kts 354°
2026-04-28 23:12 -7.55417 15.75692 36087 ft 460 kts 354°
2026-04-28 23:12 -7.48966 15.74995 36084 ft 461 kts 354°
2026-04-28 23:13 -7.42518 15.74298 36081 ft 461 kts 354°
2026-04-28 23:13 -7.36132 15.73608 36079 ft 461 kts 355°
2026-04-28 23:14 -7.29666 15.72909 36075 ft 462 kts 354°
2026-04-28 23:14 -7.23243 15.72215 36076 ft 463 kts 355°
2026-04-28 23:15 -7.16793 15.71519 36089 ft 463 kts 354°
2026-04-28 23:15 -7.10311 15.70819 36081 ft 462 kts 355°
2026-04-28 23:16 -7.03870 15.70124 36083 ft 463 kts 355°
2026-04-28 23:16 -6.97431 15.69430 36072 ft 464 kts 355°
2026-04-28 23:17 -6.90935 15.68729 36065 ft 463 kts 355°
2026-04-28 23:17 -6.84474 15.68032 36065 ft 464 kts 355°
2026-04-28 23:18 -6.78005 15.67335 36057 ft 464 kts 355°
2026-04-28 23:18 -6.71535 15.66467 36060 ft 464 kts 352°
2026-04-28 23:19 -6.65147 15.65386 36051 ft 464 kts 351°
2026-04-28 23:19 -6.58733 15.64296 36048 ft 464 kts 351°
2026-04-28 23:20 -6.52319 15.63205 36039 ft 465 kts 351°
2026-04-28 23:20 -6.45883 15.62110 36036 ft 464 kts 351°
2026-04-28 23:21 -6.39463 15.61019 36038 ft 464 kts 351°
2026-04-28 23:21 -6.33067 15.59932 36037 ft 464 kts 352°
2026-04-28 23:22 -6.26616 15.58835 36026 ft 463 kts 352°
2026-04-28 23:22 -6.20230 15.57750 36026 ft 463 kts 352°
2026-04-28 23:23 -6.13780 15.56655 36029 ft 464 kts 352°
2026-04-28 23:23 -6.07351 15.55563 36037 ft 464 kts 352°
2026-04-28 23:24 -6.00926 15.54472 36042 ft 465 kts 352°
2026-04-28 23:24 -5.94500 15.53382 36045 ft 465 kts 352°
2026-04-28 23:25 -5.88091 15.52294 36047 ft 464 kts 352°
2026-04-28 23:25 -5.81657 15.51203 36049 ft 464 kts 352°
2026-04-28 23:26 -5.75245 15.50115 36050 ft 464 kts 352°
2026-04-28 23:26 -5.68830 15.49028 36040 ft 465 kts 352°
2026-04-28 23:27 -5.62403 15.47938 36029 ft 465 kts 352°
2026-04-28 23:27 -5.55932 15.46841 36019 ft 465 kts 352°
2026-04-28 23:28 -5.49542 15.45758 36008 ft 464 kts 352°
2026-04-28 23:28 -5.43125 15.44671 36002 ft 464 kts 352°
2026-04-28 23:29 -5.36670 15.43578 35995 ft 465 kts 352°
2026-04-28 23:29 -5.30253 15.42491 35992 ft 465 kts 352°
2026-04-28 23:30 -5.23806 15.41399 35992 ft 465 kts 352°
2026-04-28 23:30 -5.17352 15.40307 35991 ft 465 kts 352°
2026-04-28 23:31 -5.10931 15.39221 35988 ft 465 kts 352°
2026-04-28 23:31 -5.04493 15.38131 35987 ft 465 kts 352°
2026-04-28 23:32 -4.98091 15.37049 35977 ft 465 kts 352°
2026-04-28 23:32 -4.91654 15.35960 35974 ft 466 kts 352°
2026-04-28 23:33 -4.85163 15.34862 35974 ft 466 kts 352°
2026-04-28 23:33 -4.78721 15.33773 35971 ft 466 kts 352°
2026-04-28 23:34 -4.72275 15.32683 35965 ft 466 kts 352°
2026-04-28 23:34 -4.65855 15.31599 35963 ft 466 kts 352°
2026-04-28 23:35 -4.59396 15.30507 35967 ft 466 kts 352°
2026-04-28 23:35 -4.52914 15.29412 35971 ft 467 kts 352°
2026-04-28 23:36 -4.46432 15.28317 35970 ft 469 kts 352°
2026-04-28 23:36 -4.39974 15.27226 35968 ft 468 kts 352°
2026-04-28 23:37 -4.33481 15.26130 35961 ft 467 kts 352°
2026-04-28 23:37 -4.26992 15.25034 35955 ft 469 kts 352°
2026-04-28 23:38 -4.20507 15.24012 35957 ft 467 kts 355°
2026-04-28 23:38 -4.14015 15.23146 35955 ft 469 kts 353°
2026-04-28 23:39 -4.07466 15.22225 35954 ft 470 kts 353°
2026-04-28 23:39 -4.00922 15.21302 35959 ft 469 kts 353°
2026-04-28 23:40 -3.94424 15.20386 35963 ft 469 kts 353°
2026-04-28 23:40 -3.87899 15.19464 35969 ft 470 kts 353°
2026-04-28 23:41 -3.81360 15.18542 35977 ft 470 kts 353°
2026-04-28 23:41 -3.74792 15.17616 35978 ft 470 kts 353°
2026-04-28 23:42 -3.68268 15.16695 35979 ft 471 kts 353°
2026-04-28 23:42 -3.61728 15.15772 35982 ft 470 kts 353°
2026-04-28 23:43 -3.55164 15.14846 35987 ft 470 kts 353°
2026-04-28 23:43 -3.48653 15.13929 35985 ft 471 kts 353°
2026-04-28 23:44 -3.42094 15.13004 35996 ft 471 kts 353°
2026-04-28 23:44 -3.35526 15.12079 35999 ft 471 kts 353°
2026-04-28 23:45 -3.28993 15.11158 35990 ft 472 kts 353°
2026-04-28 23:45 -3.22425 15.10232 35981 ft 471 kts 353°
2026-04-28 23:46 -3.15891 15.09311 35977 ft 471 kts 353°
2026-04-28 23:46 -3.09302 15.08383 35979 ft 472 kts 353°
2026-04-28 23:47 -3.02754 15.07461 35980 ft 472 kts 353°
2026-04-28 23:47 -2.96202 15.06539 35976 ft 472 kts 353°
2026-04-28 23:48 -2.89613 15.05611 35975 ft 473 kts 353°
2026-04-28 23:48 -2.83009 15.04680 35977 ft 473 kts 353°
2026-04-28 23:49 -2.76479 15.03762 35977 ft 472 kts 353°
2026-04-28 23:49 -2.69886 15.02832 35977 ft 473 kts 353°
2026-04-28 23:50 -2.63303 15.01906 35978 ft 473 kts 353°
2026-04-28 23:50 -2.56714 15.00979 35977 ft 474 kts 353°
2026-04-28 23:51 -2.50115 15.00051 35978 ft 474 kts 353°
2026-04-28 23:51 -2.43534 14.99124 35980 ft 473 kts 353°
2026-04-28 23:52 -2.36951 14.98198 35979 ft 473 kts 353°
2026-04-28 23:52 -2.30358 14.97270 35976 ft 473 kts 353°
2026-04-28 23:53 -2.23810 14.96349 35976 ft 473 kts 353°
2026-04-28 23:53 -2.17198 14.95419 35972 ft 474 kts 353°
2026-04-28 23:54 -2.10621 14.94494 35970 ft 474 kts 353°
2026-04-28 23:54 -2.04018 14.93566 35968 ft 474 kts 353°
2026-04-28 23:55 -1.97399 14.92634 35965 ft 473 kts 353°
2026-04-28 23:55 -1.90862 14.91715 35962 ft 473 kts 353°
2026-04-28 23:56 -1.84235 14.90783 35953 ft 474 kts 353°
2026-04-28 23:56 -1.77627 14.89818 35942 ft 476 kts 353°
2026-04-28 23:57 -1.70995 14.88838 35941 ft 476 kts 353°
2026-04-28 23:57 -1.64378 14.87861 35941 ft 475 kts 353°
2026-04-28 23:58 -1.57798 14.86890 35944 ft 475 kts 353°
2026-04-28 23:58 -1.51216 14.85918 35946 ft 475 kts 352°
2026-04-28 23:59 -1.44591 14.84940 35949 ft 476 kts 352°
2026-04-28 23:59 -1.37987 14.83965 35949 ft 478 kts 352°
2026-04-29 00:00 -1.31335 14.82982 35957 ft 477 kts 352°
2026-04-29 00:00 -1.24726 14.82007 35970 ft 476 kts 352°
2026-04-29 00:01 -1.18130 14.81033 35969 ft 475 kts 353°
2026-04-29 00:01 -1.11514 14.80057 35970 ft 476 kts 352°
2026-04-29 00:02 -1.04908 14.79083 35970 ft 476 kts 352°
2026-04-29 00:02 -0.98260 14.78102 35970 ft 478 kts 352°
2026-04-29 00:03 -0.91653 14.77126 35971 ft 478 kts 352°
2026-04-29 00:03 -0.84975 14.76141 35969 ft 478 kts 352°
2026-04-29 00:04 -0.78336 14.75161 35968 ft 478 kts 352°
2026-04-29 00:04 -0.71722 14.74186 35969 ft 478 kts 352°
2026-04-29 00:05 -0.65077 14.73204 35973 ft 478 kts 353°
2026-04-29 00:05 -0.58429 14.72224 35976 ft 478 kts 353°
2026-04-29 00:06 -0.51804 14.71246 35979 ft 478 kts 353°
2026-04-29 00:06 -0.45172 14.70268 35979 ft 477 kts 353°
2026-04-29 00:07 -0.38563 14.69293 35975 ft 477 kts 353°
2026-04-29 00:07 -0.31910 14.68312 35966 ft 476 kts 353°
2026-04-29 00:08 -0.25316 14.67339 35963 ft 477 kts 353°
2026-04-29 00:08 -0.18663 14.66357 35963 ft 477 kts 353°
2026-04-29 00:09 -0.12032 14.65378 35963 ft 477 kts 353°
2026-04-29 00:09 -0.05426 14.64402 35961 ft 475 kts 353°
2026-04-29 00:10 0.01157 14.63433 35959 ft 475 kts 353°
2026-04-29 00:10 0.07784 14.62455 35959 ft 477 kts 353°
2026-04-29 00:11 0.14398 14.61477 35960 ft 476 kts 353°
2026-04-29 00:12 0.24319 14.60013 35960 ft 476 kts 353°
2026-04-29 00:12 0.30952 14.59034 35968 ft 476 kts 353°
2026-04-29 00:13 0.37541 14.58063 35971 ft 475 kts 353°
2026-04-29 00:13 0.44123 14.57092 35975 ft 474 kts 353°
2026-04-29 00:14 0.50729 14.56116 35976 ft 475 kts 353°
2026-04-29 00:14 0.57332 14.55143 35971 ft 475 kts 353°
2026-04-29 00:15 0.63921 14.54170 35970 ft 475 kts 353°
2026-04-29 00:15 0.70533 14.53194 35969 ft 474 kts 353°
2026-04-29 00:16 0.77117 14.52221 35967 ft 474 kts 353°
2026-04-29 00:16 0.83707 14.51249 35966 ft 473 kts 353°
2026-04-29 00:17 0.90278 14.50280 35965 ft 474 kts 353°
2026-04-29 00:17 0.96871 14.49306 35960 ft 473 kts 352°
2026-04-29 00:18 1.03446 14.48336 35957 ft 473 kts 352°
2026-04-29 00:18 1.10018 14.47366 35956 ft 473 kts 352°
2026-04-29 00:19 1.16575 14.46397 35949 ft 473 kts 353°
2026-04-29 00:19 1.23152 14.45426 35949 ft 473 kts 353°
2026-04-29 00:20 1.29723 14.44456 35946 ft 472 kts 353°
2026-04-29 00:20 1.36290 14.43487 35947 ft 473 kts 352°
2026-04-29 00:21 1.42847 14.42518 35949 ft 473 kts 353°
2026-04-29 00:21 1.49421 14.41548 35951 ft 472 kts 353°
2026-04-29 00:22 1.55968 14.40580 35954 ft 472 kts 353°
2026-04-29 00:22 1.62521 14.39613 35950 ft 471 kts 353°
2026-04-29 00:23 1.69103 14.38641 35949 ft 471 kts 353°
2026-04-29 00:23 1.75625 14.37678 35946 ft 471 kts 353°
2026-04-29 00:24 1.82191 14.36708 35955 ft 472 kts 353°
2026-04-29 00:24 1.88730 14.35741 35953 ft 472 kts 353°
2026-04-29 00:25 1.95315 14.34769 35951 ft 473 kts 353°
2026-04-29 00:25 2.01858 14.33802 35959 ft 472 kts 353°
2026-04-29 00:26 2.08415 14.32833 35962 ft 472 kts 353°
2026-04-29 00:26 2.14960 14.31867 35965 ft 471 kts 353°
2026-04-29 00:27 2.21502 14.30900 35964 ft 471 kts 353°
2026-04-29 00:27 2.28066 14.29930 35963 ft 473 kts 353°
2026-04-29 00:28 2.34643 14.28957 35967 ft 474 kts 353°
2026-04-29 00:28 2.41250 14.27979 35971 ft 474 kts 353°
2026-04-29 00:29 2.47834 14.27005 35971 ft 474 kts 353°
2026-04-29 00:29 2.54405 14.26033 35973 ft 473 kts 353°
2026-04-29 00:30 2.60983 14.25060 35980 ft 473 kts 353°
2026-04-29 00:30 2.67569 14.24085 35980 ft 474 kts 353°
2026-04-29 00:31 2.74165 14.23109 35977 ft 475 kts 353°
2026-04-29 00:31 2.80745 14.22135 35982 ft 476 kts 353°
2026-04-29 00:32 2.87372 14.21154 35990 ft 476 kts 353°
2026-04-29 00:32 2.93992 14.20173 35994 ft 475 kts 353°
2026-04-29 00:33 3.00590 14.19197 35992 ft 475 kts 353°
2026-04-29 00:33 3.07174 14.18222 35988 ft 476 kts 353°
2026-04-29 00:34 3.13820 14.17238 35991 ft 476 kts 353°
2026-04-29 00:34 3.20424 14.16260 35994 ft 476 kts 353°
2026-04-29 00:35 3.27042 14.15281 35988 ft 477 kts 353°
2026-04-29 00:35 3.33667 14.14302 35981 ft 477 kts 353°
2026-04-29 00:36 3.40274 14.13324 35981 ft 476 kts 353°
2026-04-29 00:36 3.46928 14.12339 35982 ft 476 kts 353°
2026-04-29 00:37 3.53535 14.11361 35983 ft 476 kts 353°
2026-04-29 00:37 3.60156 14.10381 35982 ft 477 kts 353°
2026-04-29 00:38 3.66758 14.09404 35981 ft 477 kts 353°
2026-04-29 00:38 3.73379 14.08425 35981 ft 477 kts 353°
2026-04-29 00:39 3.80029 14.07440 35980 ft 477 kts 353°
2026-04-29 00:39 3.86657 14.06458 35981 ft 477 kts 353°
2026-04-29 00:40 3.93306 14.05474 35984 ft 477 kts 353°
2026-04-29 00:40 3.99907 14.04496 35987 ft 477 kts 353°
2026-04-29 00:41 4.06571 14.03508 35989 ft 478 kts 353°
2026-04-29 00:41 4.13181 14.02527 35988 ft 479 kts 353°
2026-04-29 00:42 4.19861 14.01534 35987 ft 478 kts 353°
2026-04-29 00:42 4.26496 14.00550 35983 ft 478 kts 353°
2026-04-29 00:43 4.33114 13.99567 35982 ft 477 kts 353°
2026-04-29 00:43 4.39776 13.98577 35993 ft 476 kts 353°
2026-04-29 00:44 4.46362 13.97599 36006 ft 476 kts 353°
2026-04-29 00:44 4.52988 13.96614 36015 ft 476 kts 353°
2026-04-29 00:45 4.59640 13.95625 36016 ft 477 kts 353°
2026-04-29 00:45 4.66280 13.94638 36015 ft 477 kts 353°
2026-04-29 00:46 4.72891 13.93656 36016 ft 477 kts 353°
2026-04-29 00:46 4.79542 13.92666 36018 ft 476 kts 353°
2026-04-29 00:47 4.86135 13.91685 36021 ft 476 kts 353°
2026-04-29 00:47 4.92734 13.90704 36023 ft 476 kts 353°
2026-04-29 00:48 4.99363 13.89717 36025 ft 476 kts 353°
2026-04-29 00:48 5.05992 13.88731 36028 ft 476 kts 353°
2026-04-29 00:49 5.12620 13.87744 36029 ft 476 kts 353°
2026-04-29 00:49 5.19241 13.86759 36029 ft 476 kts 353°
2026-04-29 00:50 5.25838 13.85777 36030 ft 476 kts 353°
2026-04-29 00:50 5.32471 13.84789 36032 ft 475 kts 353°
2026-04-29 00:51 5.39044 13.83811 36033 ft 475 kts 353°
2026-04-29 00:51 5.45655 13.82826 36035 ft 475 kts 353°
2026-04-29 00:52 5.52240 13.81844 36029 ft 474 kts 353°
2026-04-29 00:52 5.58841 13.80861 36029 ft 474 kts 353°
2026-04-29 00:53 5.65440 13.79878 36024 ft 474 kts 353°
2026-04-29 00:53 5.72024 13.78897 36021 ft 474 kts 353°
2026-04-29 00:54 5.78626 13.77912 36029 ft 474 kts 353°
2026-04-29 00:54 5.85224 13.76928 36041 ft 475 kts 353°
2026-04-29 00:55 5.91821 13.75943 36046 ft 473 kts 353°
2026-04-29 00:55 5.98428 13.74958 36051 ft 473 kts 353°
2026-04-29 00:56 6.04998 13.73978 36054 ft 473 kts 353°
2026-04-29 00:56 6.11571 13.72997 36062 ft 473 kts 353°
2026-04-29 00:57 6.18161 13.72011 36056 ft 473 kts 353°
2026-04-29 00:57 6.24703 13.71032 36053 ft 473 kts 353°
2026-04-29 00:58 6.31287 13.70046 36061 ft 474 kts 353°
2026-04-29 00:58 6.37887 13.69058 36063 ft 474 kts 353°
2026-04-29 00:59 6.44475 13.68073 36068 ft 473 kts 353°
2026-04-29 00:59 6.51056 13.67087 36067 ft 473 kts 353°
2026-04-29 01:00 6.57655 13.66098 36066 ft 473 kts 353°
2026-04-29 01:00 6.64223 13.65113 36072 ft 474 kts 353°
2026-04-29 01:01 6.70796 13.64128 36077 ft 473 kts 353°
2026-04-29 01:01 6.77384 13.63140 36080 ft 473 kts 353°
2026-04-29 01:02 6.83961 13.62154 36080 ft 473 kts 353°
2026-04-29 01:02 6.90529 13.61169 36101 ft 473 kts 353°
2026-04-29 01:03 6.97136 13.60178 36103 ft 474 kts 353°
2026-04-29 01:03 7.03688 13.59193 36107 ft 474 kts 353°
2026-04-29 01:04 7.10292 13.58203 36106 ft 473 kts 353°
2026-04-29 01:04 7.16875 13.57213 36092 ft 473 kts 353°
2026-04-29 01:05 7.23461 13.56238 36087 ft 473 kts 354°
2026-04-29 01:05 7.30043 13.55582 36088 ft 472 kts 355°
2026-04-29 01:06 7.36662 13.54903 36083 ft 472 kts 355°
2026-04-29 01:06 7.43275 13.54218 36086 ft 472 kts 355°
2026-04-29 01:07 7.49888 13.53535 36086 ft 472 kts 355°
2026-04-29 01:07 7.56464 13.52854 36058 ft 472 kts 355°
2026-04-29 01:08 7.63081 13.52169 36040 ft 472 kts 355°
2026-04-29 01:08 7.69651 13.51489 36009 ft 472 kts 355°
2026-04-29 01:09 7.76265 13.50804 35974 ft 472 kts 355°
2026-04-29 01:09 7.82851 13.50122 35972 ft 472 kts 355°
2026-04-29 01:10 7.89496 13.49433 35964 ft 472 kts 355°
2026-04-29 01:10 7.96078 13.48751 35952 ft 473 kts 355°
2026-04-29 01:11 8.02693 13.48065 35932 ft 472 kts 355°
2026-04-29 01:11 8.09290 13.47381 35925 ft 472 kts 355°
2026-04-29 01:12 8.15885 13.46696 35929 ft 472 kts 355°
2026-04-29 01:12 8.22468 13.46013 35935 ft 471 kts 355°
2026-04-29 01:13 8.29066 13.45328 35929 ft 472 kts 354°
2026-04-29 01:13 8.35671 13.44642 35914 ft 471 kts 354°
2026-04-29 01:14 8.42258 13.43957 35903 ft 471 kts 354°
2026-04-29 01:14 8.48870 13.43270 35886 ft 472 kts 354°
2026-04-29 01:15 8.55462 13.42585 35879 ft 473 kts 354°
2026-04-29 01:15 8.62101 13.41894 35879 ft 472 kts 354°
2026-04-29 01:16 8.68683 13.41210 35856 ft 472 kts 354°
2026-04-29 01:16 8.75281 13.40522 35853 ft 472 kts 354°
2026-04-29 01:17 8.81883 13.39834 35853 ft 472 kts 354°
2026-04-29 01:17 8.88496 13.39146 35849 ft 473 kts 354°
2026-04-29 01:18 8.95093 13.38458 35849 ft 474 kts 354°
2026-04-29 01:18 9.05063 13.37419 35845 ft 474 kts 354°
2026-04-29 01:19 9.11697 13.36727 35842 ft 473 kts 354°
2026-04-29 01:19 9.18295 13.36038 35843 ft 472 kts 354°
2026-04-29 01:20 9.24907 13.35349 35840 ft 473 kts 354°
2026-04-29 01:20 9.31553 13.34653 35844 ft 473 kts 354°
2026-04-29 01:21 9.38147 13.34024 35851 ft 473 kts 354°
2026-04-29 01:21 9.44790 13.33414 35864 ft 473 kts 354°
2026-04-29 01:22 9.51428 13.32805 35874 ft 472 kts 354°
2026-04-29 01:22 9.58014 13.32200 35870 ft 474 kts 354°
2026-04-29 01:23 9.64667 13.31602 35873 ft 473 kts 355°
2026-04-29 01:23 9.71298 13.31006 35867 ft 472 kts 355°
2026-04-29 01:24 9.77901 13.30411 35877 ft 472 kts 355°
2026-04-29 01:24 9.84513 13.29815 35889 ft 472 kts 355°
2026-04-29 01:25 9.91118 13.29220 35899 ft 471 kts 355°
2026-04-29 01:25 9.97720 13.28625 35919 ft 472 kts 355°
2026-04-29 01:26 10.04345 13.28027 35924 ft 473 kts 355°
2026-04-29 01:26 10.10886 13.26932 35936 ft 472 kts 350°
2026-04-29 01:27 10.17407 13.25794 35935 ft 470 kts 350°
2026-04-29 01:27 10.23927 13.24669 35936 ft 470 kts 350°
2026-04-29 01:28 10.30484 13.23538 35930 ft 470 kts 350°
2026-04-29 01:28 10.37002 13.22412 35925 ft 472 kts 350°
2026-04-29 01:29 10.43544 13.21283 35916 ft 471 kts 350°
2026-04-29 01:29 10.50068 13.20157 35907 ft 470 kts 350°
2026-04-29 01:30 10.56581 13.19032 35903 ft 469 kts 350°
2026-04-29 01:30 10.63070 13.17911 35909 ft 470 kts 350°
2026-04-29 01:31 10.69594 13.16783 35912 ft 470 kts 350°
2026-04-29 01:31 10.76098 13.15657 35921 ft 470 kts 350°
2026-04-29 01:32 10.82634 13.14527 35915 ft 469 kts 350°
2026-04-29 01:32 10.89129 13.13402 35908 ft 470 kts 350°
2026-04-29 01:33 10.95627 13.12277 35901 ft 470 kts 350°
2026-04-29 01:33 11.02140 13.11148 35897 ft 469 kts 350°
2026-04-29 01:34 11.08653 13.10019 35896 ft 469 kts 350°
2026-04-29 01:34 11.15131 13.08895 35897 ft 469 kts 350°
2026-04-29 01:35 11.21647 13.07764 35895 ft 469 kts 350°
2026-04-29 01:35 11.28167 13.06633 35894 ft 469 kts 350°
2026-04-29 01:36 11.34634 13.05510 35893 ft 470 kts 350°
2026-04-29 01:36 11.41148 13.04378 35890 ft 469 kts 350°
2026-04-29 01:37 11.47688 13.03241 35887 ft 469 kts 350°
2026-04-29 01:37 11.54166 13.02115 35887 ft 468 kts 350°
2026-04-29 01:38 11.60633 13.00989 35885 ft 467 kts 350°
2026-04-29 01:38 11.67115 12.99861 35879 ft 468 kts 350°
2026-04-29 01:39 11.73606 12.98730 35872 ft 468 kts 350°
2026-04-29 01:39 11.80124 12.97594 35868 ft 468 kts 350°
2026-04-29 01:40 11.86588 12.96468 35868 ft 468 kts 350°
2026-04-29 01:40 11.93076 12.95336 35864 ft 467 kts 350°
2026-04-29 01:41 11.99567 12.94203 35868 ft 467 kts 350°
2026-04-29 01:41 12.06038 12.93074 35866 ft 467 kts 350°
2026-04-29 01:42 12.12514 12.91943 35870 ft 468 kts 350°
2026-04-29 01:42 12.18996 12.90810 35867 ft 468 kts 350°
2026-04-29 01:43 12.25478 12.89676 35868 ft 467 kts 349°
2026-04-29 01:43 12.31952 12.88543 35877 ft 467 kts 350°
2026-04-29 01:44 12.38447 12.87407 35883 ft 468 kts 350°
2026-04-29 01:44 12.44953 12.86268 35885 ft 467 kts 349°
2026-04-29 01:45 12.51401 12.85139 35884 ft 467 kts 349°
2026-04-29 01:45 12.57923 12.83995 35880 ft 468 kts 349°
2026-04-29 01:46 12.64400 12.82859 35877 ft 467 kts 349°
2026-04-29 01:46 12.70881 12.81722 35878 ft 467 kts 349°
2026-04-29 01:47 12.77341 12.80588 35881 ft 468 kts 349°
2026-04-29 01:47 12.83856 12.79444 35881 ft 468 kts 349°
2026-04-29 01:48 12.90359 12.78301 35882 ft 469 kts 349°
2026-04-29 01:48 12.96848 12.77160 35882 ft 469 kts 349°
2026-04-29 01:49 13.03344 12.76017 35883 ft 469 kts 349°
2026-04-29 01:49 13.09853 12.74872 35882 ft 469 kts 349°
2026-04-29 01:50 13.16355 12.73726 35883 ft 469 kts 349°
2026-04-29 01:50 13.22840 12.72583 35884 ft 470 kts 349°
2026-04-29 01:51 13.29357 12.71367 35874 ft 470 kts 344°
2026-04-29 01:51 13.35693 12.69529 35872 ft 469 kts 343°
2026-04-29 01:52 13.42073 12.67708 35875 ft 469 kts 343°
2026-04-29 01:52 13.48445 12.65892 35881 ft 470 kts 343°
2026-04-29 01:53 13.54794 12.64083 35889 ft 469 kts 343°
2026-04-29 01:53 13.61150 12.62270 35889 ft 470 kts 343°
2026-04-29 01:54 13.67498 12.60460 35898 ft 470 kts 343°
2026-04-29 01:54 13.73898 12.58632 35895 ft 470 kts 343°
2026-04-29 01:55 13.80236 12.56823 35897 ft 469 kts 343°
2026-04-29 01:55 13.86625 12.54996 35900 ft 469 kts 343°
2026-04-29 01:56 13.92968 12.53182 35902 ft 470 kts 343°
2026-04-29 01:56 13.99324 12.51364 35909 ft 470 kts 343°
2026-04-29 01:57 14.05704 12.49538 35899 ft 470 kts 343°
2026-04-29 01:57 14.12110 12.47703 35894 ft 471 kts 343°
2026-04-29 01:58 14.18488 12.45875 35887 ft 471 kts 343°
2026-04-29 01:58 14.24834 12.44044 35892 ft 470 kts 342°
2026-04-29 01:59 14.31229 12.42196 35891 ft 471 kts 342°
2026-04-29 01:59 14.37611 12.40351 35894 ft 470 kts 342°
2026-04-29 02:00 14.43944 12.38519 35897 ft 470 kts 342°
2026-04-29 02:00 14.50320 12.36674 35903 ft 471 kts 342°
2026-04-29 02:01 14.56724 12.34818 35916 ft 471 kts 342°
2026-04-29 02:01 14.63097 12.32972 35923 ft 470 kts 342°
2026-04-29 02:02 14.69463 12.31126 35925 ft 470 kts 342°
2026-04-29 02:02 14.75804 12.29285 35920 ft 470 kts 342°
2026-04-29 02:03 14.82171 12.27437 35913 ft 470 kts 342°
2026-04-29 02:03 14.88566 12.25578 35919 ft 471 kts 342°
2026-04-29 02:04 14.94924 12.23731 35914 ft 471 kts 342°
2026-04-29 02:04 15.01293 12.21878 35907 ft 470 kts 342°
2026-04-29 02:05 15.07660 12.20025 35907 ft 470 kts 342°
2026-04-29 02:05 15.14050 12.18163 35904 ft 470 kts 342°
2026-04-29 02:06 15.20392 12.16316 35905 ft 471 kts 342°
2026-04-29 02:06 15.26787 12.14451 35908 ft 471 kts 342°
2026-04-29 02:07 15.33170 12.12582 35911 ft 470 kts 342°
2026-04-29 02:07 15.39525 12.10720 35913 ft 469 kts 342°
2026-04-29 02:08 15.45836 12.08869 35914 ft 469 kts 342°
2026-04-29 02:08 15.52184 12.07005 35912 ft 469 kts 342°
2026-04-29 02:09 15.58566 12.05132 35917 ft 469 kts 342°
2026-04-29 02:09 15.64880 12.03276 35918 ft 469 kts 342°
2026-04-29 02:10 15.71246 12.01404 35935 ft 468 kts 342°
2026-04-29 02:10 15.77590 11.99537 35942 ft 468 kts 342°
2026-04-29 02:11 15.83926 11.97672 35941 ft 468 kts 342°
2026-04-29 02:11 15.90269 11.95804 35950 ft 469 kts 341°
2026-04-29 02:12 15.96596 11.93939 35948 ft 469 kts 341°
2026-04-29 02:12 16.02936 11.92068 35953 ft 469 kts 341°
2026-04-29 02:13 16.09309 11.90186 35948 ft 468 kts 341°
2026-04-29 02:13 16.15611 11.88325 35939 ft 467 kts 341°
2026-04-29 02:14 16.21941 11.86454 35943 ft 468 kts 341°
2026-04-29 02:14 16.28274 11.84581 35944 ft 469 kts 341°
2026-04-29 02:15 16.34630 11.82700 35943 ft 469 kts 341°
2026-04-29 02:15 16.40954 11.80827 35947 ft 469 kts 341°
2026-04-29 02:16 16.47306 11.78943 35948 ft 468 kts 341°
2026-04-29 02:16 16.53679 11.77054 35950 ft 468 kts 341°
2026-04-29 02:17 16.60008 11.75175 35945 ft 468 kts 341°
2026-04-29 02:17 16.66322 11.73300 35943 ft 469 kts 341°
2026-04-29 02:18 16.72682 11.71410 35945 ft 469 kts 341°
2026-04-29 02:18 16.79019 11.69525 35946 ft 470 kts 341°
2026-04-29 02:19 16.85396 11.67627 35946 ft 469 kts 341°
2026-04-29 02:19 16.91710 11.65747 35945 ft 469 kts 341°
2026-04-29 02:20 16.98072 11.63851 35944 ft 469 kts 341°
2026-04-29 02:20 17.04408 11.61960 35945 ft 468 kts 341°
2026-04-29 02:21 17.10766 11.60063 35944 ft 469 kts 341°
2026-04-29 02:21 17.17109 11.58169 35944 ft 469 kts 341°
2026-04-29 02:22 17.23470 11.56268 35944 ft 469 kts 341°
2026-04-29 02:22 17.29794 11.54376 35947 ft 468 kts 341°
2026-04-29 02:23 17.36125 11.52482 35955 ft 468 kts 341°
2026-04-29 02:23 17.42436 11.50592 35963 ft 468 kts 340°
2026-04-29 02:24 17.48548 11.48064 35982 ft 463 kts 332°
2026-04-29 02:25 17.57413 11.43811 35959 ft 463 kts 332°
2026-04-29 02:25 17.63359 11.40978 35957 ft 463 kts 332°
2026-04-29 02:26 17.69272 11.38158 35952 ft 463 kts 332°
2026-04-29 02:26 17.75209 11.35326 35949 ft 464 kts 332°
2026-04-29 02:27 17.81141 11.32493 35956 ft 463 kts 332°
2026-04-29 02:27 17.87068 11.29660 35955 ft 462 kts 332°
2026-04-29 02:28 17.92958 11.26843 35956 ft 462 kts 332°
2026-04-29 02:28 17.98906 11.23997 35953 ft 462 kts 332°
2026-04-29 02:29 18.04809 11.21171 35953 ft 462 kts 331°
2026-04-29 02:29 18.10743 11.18328 35954 ft 462 kts 331°
2026-04-29 02:30 18.16662 11.15488 35955 ft 463 kts 331°
2026-04-29 02:30 18.22568 11.12652 35955 ft 462 kts 331°
2026-04-29 02:31 18.28476 11.09815 35955 ft 463 kts 331°
2026-04-29 02:31 18.34399 11.06968 35956 ft 462 kts 331°
2026-04-29 02:32 18.40310 11.04124 35957 ft 462 kts 331°
2026-04-29 02:32 18.46208 11.01284 35960 ft 462 kts 331°
2026-04-29 02:33 18.52105 10.98444 35966 ft 462 kts 331°
2026-04-29 02:33 18.58025 10.95588 35963 ft 462 kts 331°
2026-04-29 02:34 18.63936 10.92735 35963 ft 463 kts 331°
2026-04-29 02:34 18.69850 10.89879 35962 ft 461 kts 331°
2026-04-29 02:35 18.75750 10.87027 35961 ft 462 kts 331°
2026-04-29 02:35 18.81659 10.84168 35963 ft 463 kts 331°
2026-04-29 02:36 18.87586 10.81299 35962 ft 463 kts 331°
2026-04-29 02:36 18.93508 10.78430 35960 ft 464 kts 331°
2026-04-29 02:37 18.99439 10.75555 35967 ft 464 kts 331°
2026-04-29 02:37 19.05354 10.72683 35971 ft 463 kts 331°
2026-04-29 02:38 19.11286 10.69803 35973 ft 463 kts 330°
2026-04-29 02:38 19.17168 10.66945 35971 ft 461 kts 330°
2026-04-29 02:39 19.23087 10.64066 35972 ft 462 kts 330°
2026-04-29 02:39 19.29011 10.61181 35971 ft 462 kts 330°
2026-04-29 02:40 19.34894 10.58315 35973 ft 462 kts 330°
2026-04-29 02:40 19.40806 10.55433 35971 ft 462 kts 330°
2026-04-29 02:41 19.46687 10.52563 35973 ft 462 kts 330°
2026-04-29 02:41 19.52604 10.49673 35974 ft 462 kts 330°
2026-04-29 02:42 19.58476 10.46803 35975 ft 460 kts 330°
2026-04-29 02:42 19.64347 10.43931 35974 ft 460 kts 330°
2026-04-29 02:43 19.70237 10.41047 35974 ft 460 kts 330°
2026-04-29 02:43 19.76105 10.38172 35975 ft 461 kts 330°
2026-04-29 02:44 19.82002 10.35281 35977 ft 461 kts 330°
2026-04-29 02:44 19.87890 10.32392 35986 ft 460 kts 329°
2026-04-29 02:45 19.93755 10.29511 35984 ft 460 kts 329°
2026-04-29 02:45 19.99615 10.26630 35974 ft 458 kts 329°
2026-04-29 02:46 20.05480 10.23745 35972 ft 458 kts 329°
2026-04-29 02:46 20.11307 10.20876 35965 ft 458 kts 329°
2026-04-29 02:47 20.17145 10.17999 35964 ft 459 kts 329°
2026-04-29 02:47 20.23009 10.15106 35958 ft 460 kts 329°
2026-04-29 02:48 20.28874 10.12212 35961 ft 458 kts 329°
2026-04-29 02:48 20.34718 10.09325 35960 ft 458 kts 329°
2026-04-29 02:49 20.40543 10.06445 35958 ft 457 kts 329°
2026-04-29 02:49 20.46399 10.03547 35962 ft 457 kts 329°
2026-04-29 02:50 20.52204 10.00672 35964 ft 458 kts 329°
2026-04-29 02:50 20.58063 9.97767 35966 ft 457 kts 328°
2026-04-29 02:51 20.63873 9.94886 35975 ft 457 kts 328°
2026-04-29 02:51 20.69695 9.91995 35973 ft 456 kts 328°
2026-04-29 02:52 20.75536 9.89091 35977 ft 456 kts 328°
2026-04-29 02:52 20.81347 9.86202 35978 ft 454 kts 328°
2026-04-29 02:53 20.87111 9.83333 35979 ft 455 kts 328°
2026-04-29 02:53 20.92915 9.80442 35984 ft 455 kts 328°
2026-04-29 02:54 20.98747 9.77533 35996 ft 455 kts 328°
2026-04-29 02:54 21.04544 9.74640 36000 ft 456 kts 328°
2026-04-29 02:55 21.10342 9.71744 36001 ft 455 kts 328°
2026-04-29 02:55 21.16160 9.68835 36008 ft 454 kts 328°
2026-04-29 02:56 21.21951 9.65937 36017 ft 454 kts 328°
2026-04-29 02:56 21.27724 9.63047 36019 ft 454 kts 328°
2026-04-29 02:57 21.33505 9.60150 36020 ft 454 kts 328°
2026-04-29 02:57 21.39313 9.57235 36022 ft 454 kts 328°
2026-04-29 02:58 21.45084 9.54337 36019 ft 454 kts 328°
2026-04-29 02:58 21.50871 9.51429 36017 ft 454 kts 327°
2026-04-29 02:59 21.56666 9.48514 36019 ft 453 kts 327°
2026-04-29 02:59 21.62443 9.45605 36012 ft 453 kts 328°
2026-04-29 03:00 21.68212 9.42698 36016 ft 453 kts 327°
2026-04-29 03:00 21.73974 9.39792 36008 ft 452 kts 327°
2026-04-29 03:01 21.79746 9.36878 36008 ft 452 kts 327°
2026-04-29 03:01 21.85517 9.33963 36027 ft 454 kts 327°
2026-04-29 03:02 21.91295 9.31042 36017 ft 454 kts 327°
2026-04-29 03:02 21.97280 9.28470 36025 ft 461 kts 333°
2026-04-29 03:03 22.03380 9.26182 36020 ft 460 kts 332°
2026-04-29 03:03 22.09486 9.23866 36014 ft 459 kts 332°
2026-04-29 03:04 22.15576 9.21551 36002 ft 459 kts 332°
2026-04-29 03:04 22.21670 9.19233 35993 ft 459 kts 332°
2026-04-29 03:05 22.27785 9.16906 36000 ft 460 kts 332°
2026-04-29 03:05 22.33864 9.14589 36018 ft 460 kts 332°
2026-04-29 03:06 22.40004 9.12248 36017 ft 459 kts 332°
2026-04-29 03:06 22.46092 9.09923 36017 ft 459 kts 332°
2026-04-29 03:07 22.52186 9.07594 36032 ft 462 kts 332°
2026-04-29 03:07 22.58304 9.05254 36023 ft 461 kts 332°
2026-04-29 03:08 22.64420 9.02912 36017 ft 459 kts 332°
2026-04-29 03:08 22.70521 9.00575 36020 ft 460 kts 332°
2026-04-29 03:09 22.76648 8.98225 36023 ft 461 kts 332°
2026-04-29 03:09 22.82760 8.95878 36037 ft 463 kts 332°
2026-04-29 03:10 22.88895 8.93521 36042 ft 461 kts 332°
2026-04-29 03:10 22.95011 8.91168 36046 ft 461 kts 332°
2026-04-29 03:11 23.01151 8.88803 36049 ft 462 kts 332°
2026-04-29 03:11 23.07259 8.86449 36054 ft 462 kts 332°
2026-04-29 03:12 23.13390 8.84086 36065 ft 460 kts 331°
2026-04-29 03:12 23.19467 8.81738 36071 ft 460 kts 331°
2026-04-29 03:13 23.25553 8.79386 36083 ft 457 kts 331°
2026-04-29 03:13 23.31637 8.77031 36087 ft 460 kts 331°
2026-04-29 03:14 23.37724 8.74674 36096 ft 458 kts 331°
2026-04-29 03:14 23.43804 8.72317 36095 ft 458 kts 331°
2026-04-29 03:15 23.49829 8.69978 36097 ft 458 kts 331°
2026-04-29 03:15 23.55917 8.67614 36092 ft 457 kts 330°
2026-04-29 03:16 23.61977 8.65259 36088 ft 457 kts 331°
2026-04-29 03:16 23.68026 8.62904 36090 ft 457 kts 330°
2026-04-29 03:17 23.74063 8.60552 36086 ft 457 kts 330°
2026-04-29 03:17 23.80120 8.58190 36091 ft 456 kts 330°
2026-04-29 03:18 23.86177 8.55827 36089 ft 453 kts 330°
2026-04-29 03:18 23.92165 8.53486 36092 ft 454 kts 330°
2026-04-29 03:19 23.98207 8.51123 36094 ft 454 kts 330°
2026-04-29 03:19 24.04197 8.48777 36095 ft 452 kts 330°
2026-04-29 03:20 24.10229 8.46413 36099 ft 453 kts 330°
2026-04-29 03:20 24.16205 8.44070 36108 ft 452 kts 330°
2026-04-29 03:21 24.22189 8.41720 36114 ft 452 kts 330°
2026-04-29 03:21 24.28195 8.39358 36126 ft 453 kts 330°
2026-04-29 03:22 24.34211 8.36992 36140 ft 452 kts 330°
2026-04-29 03:22 24.40194 8.34635 36152 ft 451 kts 330°
2026-04-29 03:23 24.46150 8.32287 36173 ft 451 kts 330°
2026-04-29 03:23 24.52108 8.29935 36185 ft 450 kts 330°
2026-04-29 03:24 24.58087 8.27575 36181 ft 449 kts 329°
2026-04-29 03:24 24.64045 8.25217 36193 ft 450 kts 329°
2026-04-29 03:25 24.70028 8.22850 36198 ft 449 kts 329°
2026-04-29 03:25 24.75981 8.20490 36201 ft 451 kts 329°
2026-04-29 03:26 24.81917 8.18138 36222 ft 449 kts 329°
2026-04-29 03:26 24.87871 8.15771 36239 ft 449 kts 329°
2026-04-29 03:27 24.93811 8.13409 36251 ft 451 kts 330°
2026-04-29 03:27 24.99763 8.11043 36281 ft 449 kts 329°
2026-04-29 03:28 25.05666 8.08691 36281 ft 448 kts 329°
2026-04-29 03:28 25.11620 8.06319 36285 ft 449 kts 329°
2026-04-29 03:29 25.17566 8.03945 36286 ft 450 kts 329°
2026-04-29 03:29 25.23529 8.01559 36267 ft 450 kts 329°
2026-04-29 03:30 25.29472 7.99185 36252 ft 448 kts 329°
2026-04-29 03:30 25.35385 7.96817 36239 ft 449 kts 329°
2026-04-29 03:31 25.44333 7.93230 36205 ft 450 kts 329°
2026-04-29 03:31 25.50253 7.90855 36228 ft 450 kts 329°
2026-04-29 03:32 25.56210 7.88461 36215 ft 449 kts 329°
2026-04-29 03:32 25.62155 7.86070 36202 ft 448 kts 329°
2026-04-29 03:33 25.68089 7.83680 36176 ft 449 kts 329°
2026-04-29 03:33 25.74055 7.81273 36162 ft 449 kts 329°
2026-04-29 03:34 25.79969 7.78886 36145 ft 448 kts 329°
2026-04-29 03:34 25.85920 7.76482 36153 ft 448 kts 329°
2026-04-29 03:35 25.91890 7.74069 36150 ft 451 kts 329°
2026-04-29 03:35 25.97799 7.71677 36149 ft 450 kts 329°
2026-04-29 03:36 26.03808 7.69265 36141 ft 451 kts 329°
2026-04-29 03:36 26.09780 7.66878 36123 ft 451 kts 329°
2026-04-29 03:37 26.15726 7.64498 36100 ft 449 kts 329°
2026-04-29 03:37 26.21685 7.62112 36087 ft 451 kts 329°
2026-04-29 03:38 26.27658 7.59717 36072 ft 448 kts 329°
2026-04-29 03:38 26.33604 7.57330 36070 ft 448 kts 329°
2026-04-29 03:39 26.39580 7.54929 36045 ft 449 kts 329°
2026-04-29 03:39 26.45534 7.52533 36028 ft 450 kts 329°
2026-04-29 03:40 26.51488 7.50137 36008 ft 450 kts 329°
2026-04-29 03:40 26.57415 7.47748 36015 ft 447 kts 329°
2026-04-29 03:41 26.63332 7.45360 36008 ft 446 kts 329°
2026-04-29 03:41 26.69260 7.42963 35997 ft 450 kts 329°
2026-04-29 03:42 26.75217 7.40556 35993 ft 448 kts 329°
2026-04-29 03:42 26.81153 7.38152 35984 ft 447 kts 329°
2026-04-29 03:43 26.87071 7.35751 35973 ft 449 kts 329°
2026-04-29 03:43 26.92991 7.33350 35994 ft 447 kts 329°
2026-04-29 03:44 26.98898 7.30948 35987 ft 446 kts 329°
2026-04-29 03:44 27.04799 7.28550 35974 ft 445 kts 329°
2026-04-29 03:45 27.10716 7.26139 35967 ft 449 kts 329°
2026-04-29 03:45 27.16618 7.23732 35960 ft 448 kts 329°
2026-04-29 03:46 27.22570 7.21303 35960 ft 448 kts 329°
2026-04-29 03:46 27.28470 7.18894 35953 ft 446 kts 329°
2026-04-29 03:47 27.34395 7.16468 35962 ft 448 kts 329°
2026-04-29 03:47 27.40295 7.14053 35962 ft 448 kts 329°
2026-04-29 03:48 27.46194 7.11635 35964 ft 449 kts 329°
2026-04-29 03:48 27.52144 7.09195 35963 ft 446 kts 329°
2026-04-29 03:49 27.58049 7.06767 35959 ft 445 kts 329°
2026-04-29 03:49 27.63968 7.04330 35960 ft 447 kts 329°
2026-04-29 03:50 27.69892 7.01891 35964 ft 448 kts 329°
2026-04-29 03:50 27.75822 6.99446 35959 ft 448 kts 329°
2026-04-29 03:51 27.81724 6.97010 35958 ft 449 kts 329°
2026-04-29 03:51 27.87655 6.94557 35957 ft 449 kts 329°
2026-04-29 03:52 27.93608 6.92093 35963 ft 450 kts 329°
2026-04-29 03:52 27.99556 6.89630 35958 ft 450 kts 329°
2026-04-29 03:53 28.05461 6.87181 35951 ft 448 kts 329°
2026-04-29 03:53 28.11434 6.84701 35952 ft 450 kts 330°
2026-04-29 03:54 28.14527 6.83778 35926 ft 470 kts 343°
2026-04-29 03:54 28.17907 6.83686 35990 ft 479 kts 351°
2026-04-29 03:54 28.24645 6.83610 35947 ft 481 kts 349°
2026-04-29 03:55 28.31398 6.83442 35940 ft 480 kts 349°
2026-04-29 03:55 28.38135 6.83267 35934 ft 479 kts 349°
2026-04-29 03:56 28.44913 6.83089 35934 ft 478 kts 349°
2026-04-29 03:56 28.51670 6.82911 35934 ft 479 kts 349°
2026-04-29 03:57 28.58373 6.82734 35924 ft 478 kts 349°
2026-04-29 03:57 28.65108 6.82554 35922 ft 479 kts 349°
2026-04-29 03:58 28.71877 6.82376 35921 ft 479 kts 349°
2026-04-29 03:58 28.78605 6.82197 35912 ft 480 kts 349°
2026-04-29 03:59 28.85363 6.82019 35914 ft 479 kts 349°
2026-04-29 03:59 28.92080 6.81839 35920 ft 481 kts 349°
2026-04-29 04:00 28.98846 6.81661 35937 ft 477 kts 349°
2026-04-29 04:00 29.05584 6.81482 35938 ft 478 kts 349°
2026-04-29 04:01 29.12315 6.81301 35931 ft 478 kts 349°
2026-04-29 04:01 29.19065 6.81122 35917 ft 480 kts 350°
2026-04-29 04:02 29.25796 6.80941 35922 ft 478 kts 350°
2026-04-29 04:02 29.32535 6.80761 35930 ft 479 kts 350°
2026-04-29 04:03 29.39274 6.80580 35924 ft 479 kts 350°
2026-04-29 04:03 29.46043 6.80401 35920 ft 478 kts 350°
2026-04-29 04:04 29.52755 6.80218 35922 ft 479 kts 351°
2026-04-29 04:04 29.59487 6.80037 35920 ft 479 kts 351°
2026-04-29 04:05 29.66259 6.79855 35909 ft 480 kts 351°
2026-04-29 04:05 29.72969 6.79675 35912 ft 477 kts 351°
2026-04-29 04:06 29.79732 6.79492 35910 ft 479 kts 351°
2026-04-29 04:06 29.86424 6.79312 35910 ft 477 kts 351°
2026-04-29 04:07 29.93169 6.79128 35903 ft 478 kts 351°
2026-04-29 04:07 29.99885 6.78947 35893 ft 478 kts 351°
2026-04-29 04:08 30.06631 6.78764 35894 ft 479 kts 351°
2026-04-29 04:08 30.13380 6.78581 35893 ft 478 kts 351°
2026-04-29 04:09 30.20082 6.78397 35897 ft 478 kts 351°
2026-04-29 04:09 30.26809 6.78213 35892 ft 479 kts 351°
2026-04-29 04:10 30.33573 6.78030 35893 ft 479 kts 351°
2026-04-29 04:10 30.40303 6.77846 35888 ft 478 kts 351°
2026-04-29 04:11 30.47036 6.77662 35890 ft 479 kts 351°
2026-04-29 04:11 30.53815 6.77476 35892 ft 477 kts 351°
2026-04-29 04:12 30.60560 6.77290 35882 ft 479 kts 351°
2026-04-29 04:12 30.67304 6.77104 35880 ft 480 kts 351°
2026-04-29 04:13 30.74040 6.76918 35874 ft 481 kts 351°
2026-04-29 04:13 30.80840 6.76732 35872 ft 482 kts 351°
2026-04-29 04:14 30.87626 6.76546 35869 ft 480 kts 351°
2026-04-29 04:14 30.94362 6.76359 35878 ft 481 kts 351°
2026-04-29 04:15 31.01178 6.76170 35884 ft 482 kts 351°
2026-04-29 04:15 31.07948 6.75982 35863 ft 480 kts 351°
2026-04-29 04:16 31.14735 6.75794 35848 ft 482 kts 351°
2026-04-29 04:16 31.21501 6.75605 35888 ft 483 kts 351°
2026-04-29 04:17 31.28288 6.75417 35878 ft 483 kts 351°
2026-04-29 04:17 31.35097 6.75227 35869 ft 481 kts 351°
2026-04-29 04:18 31.41853 6.75038 35882 ft 482 kts 351°
2026-04-29 04:18 31.48642 6.74848 35874 ft 482 kts 351°
2026-04-29 04:19 31.55456 6.74656 35861 ft 483 kts 351°
2026-04-29 04:19 31.62276 6.74467 35868 ft 482 kts 351°
2026-04-29 04:20 31.69061 6.74276 35868 ft 483 kts 351°
2026-04-29 04:20 31.75809 6.74084 35863 ft 482 kts 351°
2026-04-29 04:21 31.82629 6.73892 35871 ft 483 kts 351°
2026-04-29 04:21 31.89413 6.73703 35875 ft 482 kts 351°
2026-04-29 04:22 31.96209 6.73509 35879 ft 483 kts 351°
2026-04-29 04:22 32.03028 6.73316 35874 ft 486 kts 351°
2026-04-29 04:23 32.09884 6.73123 35877 ft 485 kts 351°
2026-04-29 04:23 32.16674 6.72931 35869 ft 484 kts 351°
2026-04-29 04:24 32.23473 6.72736 35869 ft 484 kts 351°
2026-04-29 04:24 32.30320 6.72541 35865 ft 486 kts 351°
2026-04-29 04:25 32.37131 6.72349 35864 ft 483 kts 351°
2026-04-29 04:25 32.43968 6.72153 35862 ft 485 kts 351°
2026-04-29 04:26 32.50785 6.71957 35853 ft 485 kts 351°
2026-04-29 04:26 32.57604 6.71762 35855 ft 485 kts 351°
2026-04-29 04:27 32.64424 6.71568 35851 ft 484 kts 351°
2026-04-29 04:27 32.71282 6.71370 35853 ft 485 kts 351°
2026-04-29 04:28 32.78101 6.71174 35851 ft 484 kts 351°
2026-04-29 04:28 32.84919 6.70977 35859 ft 486 kts 351°
2026-04-29 04:29 32.91742 6.70780 35858 ft 485 kts 351°
2026-04-29 04:29 32.98592 6.70582 35863 ft 484 kts 351°
2026-04-29 04:30 33.05440 6.70385 35861 ft 485 kts 351°
2026-04-29 04:31 33.15647 6.70088 35859 ft 484 kts 351°
2026-04-29 04:31 33.22503 6.69889 35864 ft 485 kts 351°
2026-04-29 04:32 33.29288 6.69692 35858 ft 484 kts 351°
2026-04-29 04:32 33.36127 6.69493 35857 ft 484 kts 351°
2026-04-29 04:33 33.42970 6.69291 35862 ft 485 kts 351°
2026-04-29 04:33 33.49793 6.69093 35856 ft 485 kts 351°
2026-04-29 04:34 33.56613 6.68894 35857 ft 484 kts 351°
2026-04-29 04:34 33.63447 6.68691 35871 ft 485 kts 351°
2026-04-29 04:35 33.70270 6.68492 35875 ft 486 kts 351°
2026-04-29 04:35 33.77090 6.68293 35869 ft 483 kts 351°
2026-04-29 04:36 33.83930 6.68089 35863 ft 485 kts 351°
2026-04-29 04:36 33.90737 6.67888 35854 ft 485 kts 351°
2026-04-29 04:37 33.97566 6.67687 35951 ft 483 kts 351°
2026-04-29 04:37 34.04407 6.67485 35764 ft 486 kts 351°
2026-04-29 04:37 34.07812 6.67384 35956 ft 484 kts 351°
2026-04-29 04:38 34.11219 6.67282 35806 ft 487 kts 351°
2026-04-29 04:38 34.18070 6.67079 35867 ft 485 kts 351°
2026-04-29 04:39 34.24886 6.66876 35876 ft 486 kts 351°
2026-04-29 04:39 34.31690 6.66673 35875 ft 485 kts 351°
2026-04-29 04:40 34.38527 6.66468 35881 ft 485 kts 351°
2026-04-29 04:40 34.45338 6.66265 35889 ft 481 kts 351°
2026-04-29 04:41 34.52152 6.66061 35891 ft 483 kts 350°
2026-04-29 04:41 34.58958 6.65858 35902 ft 483 kts 350°
2026-04-29 04:42 34.65796 6.65650 35912 ft 485 kts 350°
2026-04-29 04:42 34.72558 6.65448 35917 ft 481 kts 351°
2026-04-29 04:43 34.79375 6.65242 35919 ft 481 kts 350°
2026-04-29 04:43 34.86144 6.65045 35952 ft 483 kts 350°
2026-04-29 04:44 34.92925 6.64848 35971 ft 484 kts 351°
2026-04-29 04:44 34.99698 6.64653 36000 ft 481 kts 350°
2026-04-29 04:45 35.06481 6.64456 36027 ft 482 kts 350°
2026-04-29 04:45 35.13279 6.64259 36037 ft 482 kts 351°
2026-04-29 04:46 35.20026 6.64061 36056 ft 480 kts 351°
2026-04-29 04:46 35.26799 6.63865 36078 ft 480 kts 351°
2026-04-29 04:47 35.33546 6.63667 36057 ft 480 kts 351°
2026-04-29 04:47 35.40350 6.63468 36038 ft 482 kts 351°
2026-04-29 04:48 35.47072 6.63272 36016 ft 479 kts 351°
2026-04-29 04:48 35.53827 6.63072 36007 ft 480 kts 351°
2026-04-29 04:49 35.60590 6.62872 36000 ft 481 kts 351°
2026-04-29 04:49 35.67384 6.62672 35993 ft 481 kts 351°
2026-04-29 04:50 35.74102 6.62474 36000 ft 479 kts 351°
2026-04-29 04:50 35.80846 6.62275 35996 ft 478 kts 351°
2026-04-29 04:51 35.87575 6.62076 35997 ft 478 kts 351°
2026-04-29 04:51 35.94276 6.61878 35994 ft 479 kts 352°
2026-04-29 04:52 36.01004 6.61677 35993 ft 478 kts 352°
2026-04-29 04:52 36.07753 6.61477 35979 ft 478 kts 352°
2026-04-29 04:53 36.14496 6.61274 35941 ft 479 kts 352°
2026-04-29 04:53 36.21240 6.61074 35938 ft 477 kts 352°
2026-04-29 04:54 36.27926 6.60873 35929 ft 479 kts 352°
2026-04-29 04:54 36.34741 6.61621 35946 ft 486 kts
2026-04-29 04:55 36.41511 6.62675 35944 ft 485 kts
2026-04-29 04:55 36.48279 6.63706 35947 ft 486 kts
2026-04-29 04:56 36.55088 6.64743 35943 ft 487 kts
2026-04-29 04:56 36.61870 6.65778 35932 ft 487 kts
2026-04-29 04:57 36.68668 6.66817 35913 ft 487 kts
2026-04-29 04:57 36.75471 6.67859 35911 ft 485 kts
2026-04-29 04:58 36.82230 6.68894 35889 ft 486 kts
2026-04-29 04:58 36.89009 6.69937 35854 ft 484 kts
2026-04-29 04:59 36.95770 6.70977 35857 ft 484 kts
2026-04-29 04:59 37.02482 6.72012 35845 ft 483 kts
2026-04-29 05:00 37.09249 6.73059 35843 ft 483 kts
2026-04-29 05:00 37.15974 6.74099 35840 ft 483 kts
2026-04-29 05:01 37.22733 6.75147 35839 ft 484 kts
2026-04-29 05:01 37.29501 6.76198 35840 ft 483 kts
2026-04-29 05:02 37.36241 6.77247 35844 ft 482 kts
2026-04-29 05:02 37.43002 6.78300 35847 ft 481 kts
2026-04-29 05:03 37.49676 6.79342 35849 ft 481 kts
2026-04-29 05:03 37.56415 6.80396 35847 ft 481 kts
2026-04-29 05:04 37.63142 6.81451 35843 ft 481 kts
2026-04-29 05:04 37.69856 6.82506 35842 ft 480 kts
2026-04-29 05:05 37.76570 6.83562 35839 ft 480 kts
2026-04-29 05:05 37.83239 6.84612 35843 ft 479 kts
2026-04-29 05:06 37.89912 6.85666 35843 ft 478 kts
2026-04-29 05:06 37.96577 6.86721 35841 ft 478 kts
2026-04-29 05:07 38.03225 6.87773 35844 ft 478 kts
2026-04-29 05:07 38.09936 6.88838 35587 ft 479 kts
2026-04-29 05:07 38.13237 6.89364 35883 ft 476 kts
2026-04-29 05:08 38.16634 6.89904 35931 ft 487 kts
2026-04-29 05:08 38.19999 6.90440 35579 ft 477 kts
2026-04-29 05:08 38.23316 6.90970 36075 ft 477 kts
2026-04-29 05:08 38.26654 6.91500 35651 ft 480 kts
2026-04-29 05:09 38.29970 6.92033 36010 ft 471 kts
2026-04-29 05:09 38.33291 6.92561 35761 ft 475 kts
2026-04-29 05:09 38.36590 6.93090 35895 ft 478 kts
2026-04-29 05:10 38.43321 6.94168 35859 ft 483 kts
2026-04-29 05:10 38.50059 6.95249 35874 ft 479 kts
2026-04-29 05:11 38.56720 6.96321 35873 ft 478 kts
2026-04-29 05:11 38.63386 6.97397 35886 ft 478 kts
2026-04-29 05:12 38.70060 6.98472 35872 ft 478 kts
2026-04-29 05:12 38.76768 6.99557 35880 ft 478 kts
2026-04-29 05:13 38.83402 7.00632 35884 ft 478 kts
2026-04-29 05:13 38.90115 7.01723 35881 ft 478 kts
2026-04-29 05:14 38.96794 7.02809 35882 ft 479 kts
2026-04-29 05:14 39.03430 7.03748 35884 ft 477 kts
2026-04-29 05:15 39.10133 7.04543 35888 ft 477 kts
2026-04-29 05:15 39.16818 7.05342 35895 ft 476 kts
2026-04-29 05:16 39.23470 7.06141 35891 ft 476 kts
2026-04-29 05:16 39.30154 7.06944 35896 ft 475 kts
2026-04-29 05:17 39.36792 7.07744 35904 ft 475 kts
2026-04-29 05:17 39.43453 7.08548 35902 ft 475 kts
2026-04-29 05:18 39.50110 7.09352 35899 ft 475 kts
2026-04-29 05:18 39.56730 7.10154 35910 ft 474 kts
2026-04-29 05:19 39.63376 7.10961 35911 ft 474 kts
2026-04-29 05:19 39.69991 7.11765 35908 ft 473 kts
2026-04-29 05:20 39.76636 7.12574 35904 ft 473 kts
2026-04-29 05:20 39.83237 7.13378 35906 ft 473 kts
2026-04-29 05:21 39.89896 7.14193 35909 ft 473 kts
2026-04-29 05:21 39.96499 7.15003 35910 ft 471 kts
2026-04-29 05:22 40.03055 7.15808 35911 ft 471 kts
2026-04-29 05:22 40.09672 7.16620 35913 ft 470 kts
2026-04-29 05:23 40.16221 7.17429 35911 ft 470 kts
2026-04-29 05:23 40.22842 7.18301 35910 ft 473 kts
2026-04-29 05:24 40.29448 7.19198 35913 ft 471 kts
2026-04-29 05:24 40.36013 7.20093 35918 ft 470 kts
2026-04-29 05:25 40.42569 7.20986 35920 ft 469 kts
2026-04-29 05:25 40.49110 7.21880 35928 ft 468 kts
2026-04-29 05:26 40.55691 7.22780 35932 ft 469 kts
2026-04-29 05:26 40.62250 7.23679 35934 ft 469 kts
2026-04-29 05:27 40.68819 7.24582 35933 ft 469 kts
2026-04-29 05:27 40.78634 7.25935 35937 ft 469 kts
2026-04-29 05:28 40.85165 7.26839 35940 ft 467 kts
2026-04-29 05:28 40.91705 7.27743 35945 ft 466 kts
2026-04-29 05:29 40.98249 7.28649 35946 ft 467 kts
2026-04-29 05:29 41.04750 7.29552 35949 ft 466 kts
2026-04-29 05:30 41.11298 7.30464 35946 ft 468 kts
2026-04-29 05:30 41.17848 7.31379 35948 ft 468 kts
2026-04-29 05:31 41.24401 7.32295 35956 ft 466 kts
2026-04-29 05:31 41.30897 7.33206 35953 ft 467 kts
2026-04-29 05:32 41.37418 7.34120 35957 ft 466 kts
2026-04-29 05:32 41.43949 7.35038 35957 ft 467 kts
2026-04-29 05:33 41.50471 7.35957 35949 ft 467 kts
2026-04-29 05:33 41.57020 7.36881 35952 ft 467 kts
2026-04-29 05:34 41.63578 7.37810 35953 ft 467 kts
2026-04-29 05:34 41.70108 7.38736 35950 ft 467 kts
2026-04-29 05:35 41.76599 7.39658 35953 ft 467 kts
2026-04-29 05:35 41.83122 7.40587 35955 ft 467 kts
2026-04-29 05:36 41.89652 7.41519 35959 ft 466 kts
2026-04-29 05:36 41.96169 7.42450 35957 ft 466 kts
2026-04-29 05:37 42.02692 7.43384 35960 ft 467 kts
2026-04-29 05:37 42.09244 7.44325 35955 ft 467 kts
2026-04-29 05:38 42.15765 7.45263 35951 ft 467 kts
2026-04-29 05:38 42.22325 7.46209 35950 ft 467 kts
2026-04-29 05:39 42.28814 7.47147 35955 ft 466 kts
2026-04-29 05:39 42.35197 7.48069 35957 ft 467 kts
2026-04-29 05:40 42.41745 7.49020 35960 ft 468 kts
2026-04-29 05:40 42.48273 7.49969 35962 ft 468 kts
2026-04-29 05:41 42.54839 7.50925 35965 ft 469 kts
2026-04-29 05:41 42.61408 7.51884 35970 ft 468 kts
2026-04-29 05:42 42.67914 7.52835 35980 ft 467 kts
2026-04-29 05:42 42.74462 7.53795 35983 ft 468 kts
2026-04-29 05:43 42.80988 7.54753 35985 ft 469 kts
2026-04-29 05:43 42.87588 7.55725 35989 ft 470 kts
2026-04-29 05:44 42.94136 7.56690 35989 ft 470 kts
2026-04-29 05:44 43.00708 7.57663 35985 ft 470 kts
2026-04-29 05:45 43.07288 7.58637 35985 ft 469 kts
2026-04-29 05:45 43.13811 7.59835 36003 ft 471 kts
2026-04-29 05:46 43.17071 7.60598 36194 ft 473 kts
2026-04-29 05:46 43.20334 7.61347 35871 ft 471 kts
2026-04-29 05:46 43.23571 7.62089 36086 ft 465 kts
2026-04-29 05:46 43.26823 7.62829 35754 ft 471 kts
2026-04-29 05:47 43.30092 7.63576 36036 ft 468 kts
2026-04-29 05:47 43.33331 7.64315 35992 ft 475 kts
2026-04-29 05:47 43.39928 7.65827 35972 ft 469 kts
2026-04-29 05:48 43.46435 7.67319 35978 ft 470 kts
2026-04-29 05:48 43.52906 7.68808 36002 ft 471 kts
2026-04-29 05:49 43.59442 7.70314 35993 ft 471 kts
2026-04-29 05:49 43.65975 7.71823 36003 ft 472 kts
2026-04-29 05:50 43.72487 7.73330 35990 ft 472 kts
2026-04-29 05:50 43.79025 7.74849 36008 ft 472 kts
2026-04-29 05:51 43.82250 7.76096 35994 ft 477 kts 21°
2026-04-29 05:51 43.85100 7.78480 36035 ft 482 kts 37°
2026-04-29 05:51 43.90364 7.84507 36005 ft 485 kts 36°
2026-04-29 05:52 43.95792 7.90033 35996 ft 479 kts 25°
2026-04-29 05:52 44.02101 7.93189 36025 ft 479 kts 17°
2026-04-29 05:53 44.08422 7.96311 36028 ft 479 kts 17°
2026-04-29 05:53 44.14749 7.99478 36030 ft 476 kts 17°
2026-04-29 05:54 44.21028 8.02632 36033 ft 476 kts 17°
2026-04-29 05:54 44.27309 8.05794 36033 ft 476 kts 17°
2026-04-29 05:55 44.33608 8.08971 36030 ft 476 kts 17°
2026-04-29 05:55 44.39886 8.12145 36033 ft 476 kts 17°
2026-04-29 05:56 44.46163 8.15327 36032 ft 476 kts 17°
2026-04-29 05:56 44.52452 8.18521 36029 ft 476 kts 17°
2026-04-29 05:57 44.58721 8.21712 36034 ft 476 kts 17°
2026-04-29 05:57 44.61844 8.23305 35800 ft 475 kts 17°
2026-04-29 05:57 44.64994 8.24915 36078 ft 474 kts 17°
2026-04-29 05:58 44.71315 8.28147 36030 ft 479 kts 17°
2026-04-29 05:58 44.77599 8.31370 36044 ft 478 kts 17°
2026-04-29 05:59 44.83888 8.34601 36045 ft 477 kts 17°
2026-04-29 05:59 44.90174 8.37839 36047 ft 478 kts 17°
2026-04-29 06:00 44.96473 8.41091 36054 ft 478 kts 17°
2026-04-29 06:00 45.02808 8.44369 36057 ft 478 kts 17°
2026-04-29 06:01 45.09055 8.47609 36056 ft 477 kts 17°
2026-04-29 06:01 45.15345 8.50880 36060 ft 476 kts 17°
2026-04-29 06:02 45.21642 8.54162 36065 ft 476 kts 17°
2026-04-29 06:02 45.27902 8.57432 36073 ft 477 kts 17°
2026-04-29 06:03 45.34163 8.60710 36091 ft 477 kts 16°
2026-04-29 06:03 45.40417 8.63992 36085 ft 476 kts 16°
2026-04-29 06:04 45.46703 8.67300 36081 ft 476 kts 17°
2026-04-29 06:04 45.52939 8.70589 36080 ft 476 kts 17°
2026-04-29 06:05 45.59232 8.73915 36084 ft 476 kts 17°
2026-04-29 06:05 45.65448 8.77208 36086 ft 475 kts 17°
2026-04-29 06:06 45.71697 8.80528 36093 ft 475 kts 17°
2026-04-29 06:06 45.77911 8.83836 36086 ft 473 kts 17°
2026-04-29 06:07 45.84137 8.87158 36079 ft 473 kts 17°
2026-04-29 06:07 45.90328 8.90470 36083 ft 473 kts 17°
2026-04-29 06:08 45.96565 8.93814 36088 ft 473 kts 17°
2026-04-29 06:08 46.02745 8.97136 36086 ft 472 kts 17°
2026-04-29 06:09 46.08949 9.00479 36083 ft 472 kts 17°
2026-04-29 06:09 46.15145 9.03758 36083 ft 469 kts 12°
2026-04-29 06:10 46.18363 9.04439 36084 ft 459 kts 355°
2026-04-29 06:10 46.21564 9.04159 36125 ft 457 kts 352°
2026-04-29 06:10 46.27953 9.03777 36098 ft 458 kts 354°
2026-04-29 06:11 46.34408 9.03486 36116 ft 457 kts 354°
2026-04-29 06:11 46.40809 9.03207 36104 ft 458 kts 354°
2026-04-29 06:12 46.47213 9.02929 36105 ft 457 kts 354°
2026-04-29 06:12 46.53629 9.02650 36100 ft 456 kts 354°
2026-04-29 06:13 46.59993 9.02373 36113 ft 456 kts 354°
2026-04-29 06:13 46.66418 9.02092 36121 ft 456 kts 354°
2026-04-29 06:14 46.72806 9.01813 36129 ft 456 kts 354°
2026-04-29 06:14 46.79171 9.01535 36138 ft 456 kts 354°
2026-04-29 06:15 46.85547 9.01254 36122 ft 455 kts 354°
2026-04-29 06:15 46.91906 9.00974 36101 ft 454 kts 354°
2026-04-29 06:16 46.98271 9.00692 36124 ft 452 kts 354°
2026-04-29 06:16 47.04644 9.00410 36129 ft 455 kts 354°
2026-04-29 06:17 47.11035 9.00127 36109 ft 454 kts 354°
2026-04-29 06:17 47.17376 8.99844 36149 ft 454 kts 354°
2026-04-29 06:18 47.23751 8.99560 36154 ft 453 kts 354°
2026-04-29 06:18 47.30080 8.99276 36152 ft 452 kts 354°
2026-04-29 06:19 47.36420 8.98992 36157 ft 452 kts 354°
2026-04-29 06:19 47.42738 8.98708 36157 ft 453 kts 354°
2026-04-29 06:20 47.49107 8.98421 36156 ft 452 kts 354°
2026-04-29 06:20 47.55444 8.98135 36148 ft 452 kts 354°
2026-04-29 06:21 47.61775 8.97849 36147 ft 452 kts 354°
2026-04-29 06:21 47.68103 8.97561 36151 ft 451 kts 354°
2026-04-29 06:22 47.74426 8.97274 36145 ft 451 kts 354°
2026-04-29 06:22 47.80711 8.96988 36138 ft 451 kts 354°
2026-04-29 06:23 47.87023 8.96699 36140 ft 450 kts 353°
2026-04-29 06:23 47.93340 8.96410 36137 ft 451 kts 353°
2026-04-29 06:24 47.99631 8.96121 36134 ft 449 kts 353°
2026-04-29 06:24 48.05954 8.95828 36129 ft 450 kts 353°
2026-04-29 06:25 48.12248 8.95538 36128 ft 448 kts 353°
2026-04-29 06:25 48.18535 8.95518 36115 ft 455 kts
2026-04-29 06:26 48.24858 8.96559 36133 ft 454 kts
2026-04-29 06:26 48.31126 8.97520 36131 ft 443 kts
2026-04-29 06:27 48.37275 8.98455 36142 ft 441 kts
2026-04-29 06:27 48.43467 8.99397 36135 ft 442 kts
2026-04-29 06:28 48.49577 9.00494 36153 ft 440 kts 359°
2026-04-29 06:28 48.55779 9.01295 36150 ft 441 kts
2026-04-29 06:29 48.61896 9.02215 36154 ft 442 kts
2026-04-29 06:29 48.68040 9.03595 36155 ft 444 kts
2026-04-29 06:30 48.77287 9.05804 36164 ft 444 kts
2026-04-29 06:31 48.83392 9.07264 36174 ft 442 kts
2026-04-29 06:31 48.89543 9.08655 36158 ft 439 kts
2026-04-29 06:32 48.95643 9.09485 36166 ft 440 kts
2026-04-29 06:32 49.01789 9.10359 36170 ft 440 kts
2026-04-29 06:33 49.07948 9.11236 36183 ft 439 kts
2026-04-29 06:33 49.14083 9.12110 36195 ft 438 kts
2026-04-29 06:34 49.20158 9.12981 36195 ft 438 kts
2026-04-29 06:34 49.26272 9.13858 36212 ft 436 kts
2026-04-29 06:35 49.32315 9.15551 36208 ft 441 kts
2026-04-29 06:35 49.38350 9.17687 36199 ft 440 kts
2026-04-29 06:36 49.44348 9.19816 36209 ft 440 kts
2026-04-29 06:36 49.50353 9.21952 36208 ft 439 kts
2026-04-29 06:37 49.56344 9.24089 36214 ft 439 kts
2026-04-29 06:37 49.62312 9.26223 36209 ft 439 kts
2026-04-29 06:38 49.68301 9.28371 36215 ft 439 kts
2026-04-29 06:38 49.74287 9.30522 36225 ft 439 kts 10°
2026-04-29 06:39 49.80292 9.31840 36221 ft 431 kts 352°
2026-04-29 06:39 49.83187 9.30669 36244 ft 428 kts 335°
2026-04-29 06:39 49.85710 9.28194 36255 ft 429 kts 319°
2026-04-29 06:39 49.87815 9.24889 36234 ft 430 kts 308°
2026-04-29 06:40 49.89274 9.20803 36227 ft 433 kts 291°
2026-04-29 06:40 49.90673 9.11631 36246 ft 437 kts 288°
2026-04-29 06:41 49.92384 9.02553 36242 ft 437 kts 289°
2026-04-29 06:41 49.94123 8.93453 36253 ft 438 kts 289°
2026-04-29 06:42 49.95853 8.84350 36245 ft 437 kts 289°
2026-04-29 06:42 49.97525 8.75223 36239 ft 439 kts 283°
2026-04-29 06:42 49.97646 8.70437 36239 ft 445 kts 267°
2026-04-29 06:43 49.96923 8.65775 36253 ft 452 kts 251°
2026-04-29 06:43 49.94616 8.56597 36250 ft 454 kts 253°
2026-04-29 06:44 49.92408 8.47455 36236 ft 450 kts 253°
2026-04-29 06:44 49.90208 8.38333 36252 ft 451 kts 253°
2026-04-29 06:45 49.87992 8.29189 36244 ft 452 kts 252°
2026-04-29 06:45 49.85766 8.20046 36241 ft 452 kts 252°
2026-04-29 06:46 49.83550 8.10964 36237 ft 451 kts 252°
2026-04-29 06:46 49.81324 8.01874 36236 ft 451 kts 252°
2026-04-29 06:46 49.80557 7.97214 36211 ft 445 kts 267°
2026-04-29 06:47 49.80692 7.92493 36249 ft 439 kts 282°
2026-04-29 06:47 49.81559 7.88020 36227 ft 437 kts 297°
2026-04-29 06:47 49.83243 7.84132 36217 ft 433 kts 314°
2026-04-29 06:47 49.85591 7.81236 36227 ft 432 kts 330°
2026-04-29 06:48 49.88386 7.79569 36231 ft 435 kts 347°
2026-04-29 06:48 49.91405 7.79265 36227 ft 439 kts
2026-04-29 06:48 49.94457 7.79417 36218 ft 437 kts 353°
2026-04-29 06:48 49.97368 7.78262 36215 ft 434 kts 336°
2026-04-29 06:49 49.99904 7.75823 36228 ft 435 kts 320°
2026-04-29 06:49 50.01903 7.72224 36229 ft 439 kts 303°
2026-04-29 06:49 50.03107 7.67912 36234 ft 443 kts 287°
2026-04-29 06:49 50.03450 7.63147 36233 ft 449 kts 270°
2026-04-29 06:50 50.02871 7.58344 36240 ft 454 kts 253°
2026-04-29 06:50 50.01421 7.53999 36233 ft 459 kts 237°
2026-04-29 06:50 49.99215 7.50409 36245 ft 463 kts 223°
2026-04-29 06:51 49.94191 7.44077 36223 ft 465 kts 222°
2026-04-29 06:51 49.89202 7.37795 36221 ft 463 kts 222°
2026-04-29 06:52 49.84187 7.31485 36213 ft 462 kts 221°
2026-04-29 06:52 49.79222 7.25245 36222 ft 463 kts 222°
2026-04-29 06:53 49.74211 7.18954 36216 ft 462 kts 222°
2026-04-29 06:53 49.69270 7.12669 36198 ft 458 kts 227°
2026-04-29 06:53 49.67349 7.08867 36194 ft 449 kts 244°
2026-04-29 06:54 49.66015 7.04516 36227 ft 448 kts 249°
2026-04-29 06:54 49.63623 6.95603 36200 ft 448 kts 251°
2026-04-29 06:55 49.61331 6.86740 36197 ft 447 kts 251°
2026-04-29 06:55 49.59027 6.77822 36177 ft 446 kts 251°
2026-04-29 06:56 49.56734 6.68966 36188 ft 448 kts 251°
2026-04-29 06:56 49.54432 6.60116 36174 ft 445 kts 251°
2026-04-29 06:57 49.52134 6.51310 36179 ft 446 kts 251°
2026-04-29 06:57 49.49826 6.42504 36176 ft 443 kts 251°
2026-04-29 06:58 49.47513 6.33712 36177 ft 442 kts 250°
2026-04-29 06:58 49.45193 6.24928 36181 ft 443 kts 250°
2026-04-29 06:59 49.42881 6.16205 36181 ft 442 kts 250°
2026-04-29 06:59 49.40565 6.07498 36170 ft 441 kts 250°
2026-04-29 07:00 49.38223 5.98731 36164 ft 441 kts 250°
2026-04-29 07:00 49.35910 5.90100 36164 ft 440 kts 250°
2026-04-29 07:01 49.33574 5.81418 36158 ft 441 kts 250°
2026-04-29 07:01 49.31229 5.72734 36169 ft 442 kts 250°
2026-04-29 07:02 49.28877 5.64063 36155 ft 440 kts 250°
2026-04-29 07:02 49.26526 5.55424 36145 ft 439 kts 250°
2026-04-29 07:03 49.24176 5.46817 36150 ft 438 kts 250°
2026-04-29 07:03 49.21828 5.38246 36152 ft 438 kts 250°
2026-04-29 07:04 49.19458 5.29636 36153 ft 439 kts 249°
2026-04-29 07:04 49.17090 5.21062 36141 ft 438 kts 249°
2026-04-29 07:05 49.14714 5.12487 36135 ft 437 kts 249°
2026-04-29 07:05 49.12345 5.03973 36142 ft 437 kts 249°
2026-04-29 07:06 49.09979 4.95492 36133 ft 437 kts 249°
2026-04-29 07:06 49.07590 4.86965 36121 ft 435 kts 249°
2026-04-29 07:07 49.05206 4.78484 36127 ft 435 kts 249°
2026-04-29 07:07 49.02825 4.70045 36122 ft 433 kts 249°
2026-04-29 07:08 49.00451 4.61663 36125 ft 434 kts 249°
2026-04-29 07:08 48.98057 4.53237 36120 ft 434 kts 249°
2026-04-29 07:09 48.95665 4.44847 36113 ft 433 kts 249°
2026-04-29 07:09 48.93261 4.36445 36119 ft 431 kts 249°
2026-04-29 07:10 48.90866 4.28106 36128 ft 432 kts 248°
2026-04-29 07:10 48.88454 4.19731 36104 ft 431 kts 248°
2026-04-29 07:11 48.86056 4.11438 36107 ft 431 kts 248°
2026-04-29 07:11 48.83784 4.03608 36110 ft 432 kts 248°